Time,TemperatureF,DewpointF,PressureIn,WindDirection,WindDirectionDegrees,WindSpeedMPH,WindSpeedGustMPH,Humidity,HourlyPrecipIn,Conditions,Clouds,dailyrainin,SolarRadiationWatts/m^2,SoftwareType,DateUTC
2013-02-26 00:03:00,30.8,5.7,29.98,SSW,204,3.5,3.5,34,0.00,CLR,,0.00,0.0,WeatherDisplay:10.37,2013-02-26 07:03:00,
2013-02-26 00:04:00,30.6,5.5,29.98,SSW,204,3.5,3.5,34,0.00,CLR,,0.00,0.0,WeatherDisplay:10.37,2013-02-26 07:04:00,
2013-02-26 00:05:00,30.6,5.5,29.98,SW,231,3.5,3.5,34,0.00,CLR,,0.00,0.0,WeatherDisplay:10.37,2013-02-26 07:05:00,
2013-02-26 00:06:00,30.5,5.4,29.99,SW,228,3.5,3.5,34,0.00,CLR,,0.00,0.0,WeatherDisplay:10.37,2013-02-26 07:06:00,
2013-02-26 00:09:00,30.3,5.9,29.98,SW,223,3.5,3.5,35,0.00,CLR,,0.00,0.0,WeatherDisplay:10.37,2013-02-26 07:09:00,
2013-02-26 00:11:00,30.2,5.8,29.98,SW,232,3.5,3.5,35,0.00,CLR,,0.00,0.0,WeatherDisplay:10.37,2013-02-26 07:11:00,
2013-02-26 00:15:00,30.2,5.8,29.98,SW,214,3.5,3.5,35,0.00,CLR,,0.00,0.0,WeatherDisplay:10.37,2013-02-26 07:15:00,
2013-02-26 00:16:00,30.2,5.8,29.98,SW,220,3.5,3.5,35,0.00,CLR,,0.00,0.0,WeatherDisplay:10.37,2013-02-26 07:16:00,
2013-02-26 00:17:00,30.2,5.8,29.98,SW,220,3.5,3.5,35,0.00,CLR,,0.00,0.0,WeatherDisplay:10.37,2013-02-26 07:17:00,
2013-02-26 00:22:00,30.0,5.6,29.98,WSW,245,4.6,4.6,35,0.00,CLR,,0.00,0.0,WeatherDisplay:10.37,2013-02-26 07:22:00,
2013-02-26 00:23:00,30.0,5.6,29.98,WSW,247,3.5,3.5,35,0.00,CLR,,0.00,0.0,WeatherDisplay:10.37,2013-02-26 07:23:00,
2013-02-26 00:24:00,29.9,5.5,29.98,WSW,247,3.5,3.5,35,0.00,CLR,,0.00,0.0,WeatherDisplay:10.37,2013-02-26 07:24:00,
2013-02-26 00:27:00,29.7,5.3,29.98,WSW,247,2.3,2.3,35,0.00,CLR,,0.00,0.0,WeatherDisplay:10.37,2013-02-26 07:27:00,
2013-02-26 00:28:00,29.7,5.3,29.98,WSW,247,3.5,3.5,35,0.00,CLR,,0.00,0.0,WeatherDisplay:10.37,2013-02-26 07:28:00,
2013-02-26 00:29:00,29.6,5.3,29.98,WSW,247,2.3,2.3,35,0.00,CLR,,0.00,0.0,WeatherDisplay:10.37,2013-02-26 07:29:00,
2013-02-26 00:30:00,29.5,5.8,29.98,WSW,247,2.3,2.3,36,0.00,CLR,,0.00,0.0,WeatherDisplay:10.37,2013-02-26 07:30:00,
2013-02-26 00:34:00,29.1,5.4,29.98,WSW,247,3.5,3.5,36,0.00,CLR,,0.00,0.0,WeatherDisplay:10.37,2013-02-26 07:34:00,
2013-02-26 00:35:00,29.0,5.3,29.98,WSW,249,3.5,3.5,36,0.00,CLR,,0.00,0.0,WeatherDisplay:10.37,2013-02-26 07:35:00,
2013-02-26 00:37:00,28.9,5.2,29.98,WSW,252,2.3,2.3,36,0.00,CLR,,0.00,0.0,WeatherDisplay:10.37,2013-02-26 07:37:00,
2013-02-26 00:38:00,28.9,5.8,29.98,WSW,252,2.3,2.3,37,0.00,CLR,,0.00,0.0,WeatherDisplay:10.37,2013-02-26 07:38:00,
2013-02-26 00:41:00,28.8,5.8,29.98,WSW,256,3.5,3.5,37,0.00,CLR,,0.00,0.0,WeatherDisplay:10.37,2013-02-26 07:41:00,
2013-02-26 00:42:00,28.8,5.8,29.98,West,261,3.5,3.5,37,0.00,CLR,,0.00,0.0,WeatherDisplay:10.37,2013-02-26 07:42:00,
2013-02-26 00:44:00,28.8,5.8,29.98,West,265,3.5,3.5,37,0.00,CLR,,0.00,0.0,WeatherDisplay:10.37,2013-02-26 07:44:00,
2013-02-26 00:45:00,28.9,5.8,29.98,West,265,3.5,3.5,37,0.00,CLR,,0.00,0.0,WeatherDisplay:10.37,2013-02-26 07:45:00,
2013-02-26 00:47:00,28.9,5.8,29.98,West,265,2.3,2.3,37,0.00,CLR,,0.00,0.0,WeatherDisplay:10.37,2013-02-26 07:47:00,
2013-02-26 00:50:00,28.9,6.4,29.97,West,266,3.5,3.5,38,0.00,CLR,,0.00,0.0,WeatherDisplay:10.37,2013-02-26 07:50:00,
2013-02-26 00:51:00,28.8,6.3,29.97,West,266,2.3,2.3,38,0.00,CLR,,0.00,0.0,WeatherDisplay:10.37,2013-02-26 07:51:00,
2013-02-26 00:53:00,28.8,6.3,29.97,West,266,2.3,2.3,38,0.00,CLR,,0.00,0.0,WeatherDisplay:10.37,2013-02-26 07:53:00,
2013-02-26 00:54:00,28.8,6.9,29.98,West,266,2.3,2.3,39,0.00,CLR,,0.00,0.0,WeatherDisplay:10.37,2013-02-26 07:54:00,
2013-02-26 00:56:00,28.7,6.8,29.97,WNW,282,3.5,3.5,39,0.00,CLR,,0.00,0.0,WeatherDisplay:10.37,2013-02-26 07:56:00,
2013-02-26 00:58:00,28.6,6.7,29.98,West,279,3.5,3.5,39,0.00,CLR,,0.00,0.0,WeatherDisplay:10.37,2013-02-26 07:58:00,
2013-02-26 01:00:00,28.6,6.7,29.98,West,280,3.5,3.5,39,0.00,CLR,,0.00,0.0,WeatherDisplay:10.37,2013-02-26 08:00:00,
2013-02-26 01:01:00,28.6,6.2,29.98,West,280,3.5,3.5,38,0.00,CLR,,0.00,0.0,WeatherDisplay:10.37,2013-02-26 08:01:00,
2013-02-26 01:05:00,28.3,5.9,29.98,West,260,3.5,3.5,38,0.00,FEW,,0.00,0.0,WeatherDisplay:10.37,2013-02-26 08:05:00,
2013-02-26 01:06:00,28.3,5.9,29.98,West,260,3.5,3.5,38,0.00,FEW,,0.00,0.0,WeatherDisplay:10.37,2013-02-26 08:06:00,
2013-02-26 01:11:00,28.2,6.4,29.98,West,259,5.8,5.8,39,0.00,FEW,,0.00,0.0,WeatherDisplay:10.37,2013-02-26 08:11:00,
2013-02-26 01:12:00,28.2,6.4,29.98,WSW,248,4.6,4.6,39,0.00,FEW,,0.00,0.0,WeatherDisplay:10.37,2013-02-26 08:12:00,
2013-02-26 01:13:00,28.2,6.4,29.97,WSW,243,4.6,4.6,39,0.00,FEW,,0.00,0.0,WeatherDisplay:10.37,2013-02-26 08:13:00,
2013-02-26 01:17:00,28.1,5.7,29.97,West,267,3.5,3.5,38,0.00,FEW,,0.00,0.0,WeatherDisplay:10.37,2013-02-26 08:17:00,
2013-02-26 01:18:00,28.1,5.7,29.97,West,274,3.5,3.5,38,0.00,FEW,,0.00,0.0,WeatherDisplay:10.37,2013-02-26 08:18:00,
2013-02-26 01:20:00,28.2,5.8,29.97,West,274,2.3,2.3,38,0.00,FEW,,0.00,0.0,WeatherDisplay:10.37,2013-02-26 08:20:00,
2013-02-26 01:23:00,28.1,5.7,29.98,West,274,1.1,1.1,38,0.00,FEW,,0.00,0.0,WeatherDisplay:10.37,2013-02-26 08:23:00,
2013-02-26 01:25:00,28.1,5.7,29.97,West,274,2.3,2.3,38,0.00,FEW,,0.00,0.0,WeatherDisplay:10.37,2013-02-26 08:25:00,
2013-02-26 01:26:00,28.2,5.8,29.97,West,274,2.3,2.3,38,0.00,FEW,,0.00,0.0,WeatherDisplay:10.37,2013-02-26 08:26:00,
2013-02-26 01:27:00,28.2,5.8,29.97,West,274,2.3,2.3,38,0.00,FEW,,0.00,0.0,WeatherDisplay:10.37,2013-02-26 08:27:00,
2013-02-26 01:30:00,28.1,5.7,29.97,West,274,2.3,2.3,38,0.00,FEW,,0.00,0.0,WeatherDisplay:10.37,2013-02-26 08:30:00,
2013-02-26 01:33:00,28.1,5.7,29.97,West,274,2.3,2.3,38,0.00,FEW,,0.00,0.0,WeatherDisplay:10.37,2013-02-26 08:33:00,
2013-02-26 01:35:00,28.0,5.6,29.97,West,274,2.3,2.3,38,0.00,FEW,,0.00,0.0,WeatherDisplay:10.37,2013-02-26 08:35:00,
2013-02-26 01:38:00,28.0,6.2,29.97,West,274,1.1,1.1,39,0.00,FEW,,0.00,0.0,WeatherDisplay:10.37,2013-02-26 08:38:00,
2013-02-26 01:39:00,28.0,6.2,29.97,West,274,2.3,2.3,39,0.00,FEW,,0.00,0.0,WeatherDisplay:10.37,2013-02-26 08:39:00,
2013-02-26 01:41:00,27.8,6.0,29.97,West,274,2.3,2.3,39,0.00,FEW,,0.00,0.0,WeatherDisplay:10.37,2013-02-26 08:41:00,
2013-02-26 01:44:00,27.6,5.8,29.97,West,274,2.3,2.3,39,0.00,FEW,,0.00,0.0,WeatherDisplay:10.37,2013-02-26 08:44:00,
2013-02-26 01:46:00,27.5,5.7,29.97,West,274,2.3,2.3,39,0.00,FEW,,0.00,0.0,WeatherDisplay:10.37,2013-02-26 08:46:00,
2013-02-26 01:49:00,27.6,5.8,29.97,West,274,1.1,0.0,39,0.00,FEW,,0.00,0.0,WeatherDisplay:10.37,2013-02-26 08:49:00,
2013-02-26 01:51:00,27.5,5.7,29.97,West,274,1.1,1.1,39,0.00,FEW,,0.00,0.0,WeatherDisplay:10.37,2013-02-26 08:51:00,
2013-02-26 01:54:00,27.3,6.1,29.97,West,274,2.3,2.3,40,0.00,FEW,,0.00,0.0,WeatherDisplay:10.37,2013-02-26 08:54:00,
2013-02-26 01:55:00,27.2,6.0,29.97,West,274,2.3,2.3,40,0.00,FEW,,0.00,0.0,WeatherDisplay:10.37,2013-02-26 08:55:00,
2013-02-26 02:00:00,27.0,6.4,29.97,West,269,3.5,3.5,41,0.00,FEW,,0.00,0.0,WeatherDisplay:10.37,2013-02-26 09:00:00,
2013-02-26 02:01:00,26.9,6.3,29.97,WSW,247,3.5,3.5,41,0.00,FEW,,0.00,0.0,WeatherDisplay:10.37,2013-02-26 09:01:00,
2013-02-26 02:03:00,27.0,6.9,29.97,WSW,239,3.5,3.5,42,0.00,FEW,,0.00,0.0,WeatherDisplay:10.37,2013-02-26 09:03:00,
2013-02-26 02:04:00,27.1,7.0,29.97,SW,233,3.5,3.5,42,0.00,FEW,,0.00,0.0,WeatherDisplay:10.37,2013-02-26 09:04:00,
2013-02-26 02:09:00,27.5,7.4,29.96,SW,227,2.3,2.3,42,0.00,FEW,,0.00,0.0,WeatherDisplay:10.37,2013-02-26 09:09:00,
2013-02-26 02:11:00,27.4,6.8,29.96,SW,233,3.5,3.5,41,0.00,FEW,,0.00,0.0,WeatherDisplay:10.37,2013-02-26 09:11:00,
2013-02-26 02:12:00,27.3,6.7,29.96,SW,230,2.3,2.3,41,0.00,FEW,,0.00,0.0,WeatherDisplay:10.37,2013-02-26 09:12:00,
2013-02-26 02:16:00,27.5,6.8,29.97,SW,222,4.0,4.0,41,0.00,FEW,,0.00,0.0,WeatherDisplay:10.37,2013-02-26 09:16:00,
2013-02-26 02:17:00,27.6,6.9,29.97,SSW,213,3.5,3.5,41,0.00,FEW,,0.00,0.0,WeatherDisplay:10.37,2013-02-26 09:17:00,
2013-02-26 02:19:00,27.8,7.1,29.96,SSW,199,3.5,3.5,41,0.00,FEW,,0.00,0.0,WeatherDisplay:10.37,2013-02-26 09:19:00,
2013-02-26 02:21:00,28.0,7.3,29.96,SW,219,3.5,3.5,41,0.00,FEW,,0.00,0.0,WeatherDisplay:10.37,2013-02-26 09:21:00,
2013-02-26 02:23:00,28.0,7.3,29.96,SW,223,3.5,3.5,41,0.00,FEW,,0.00,0.0,WeatherDisplay:10.37,2013-02-26 09:23:00,
2013-02-26 02:24:00,28.1,7.4,29.96,SW,220,3.5,3.5,41,0.00,FEW,,0.00,0.0,WeatherDisplay:10.37,2013-02-26 09:24:00,
2013-02-26 02:27:00,28.3,8.1,29.96,SW,214,4.6,4.6,42,0.00,FEW,,0.00,0.0,WeatherDisplay:10.37,2013-02-26 09:27:00,
2013-02-26 02:28:00,28.4,8.2,29.96,SW,226,4.6,4.6,42,0.00,FEW,,0.00,0.0,WeatherDisplay:10.37,2013-02-26 09:28:00,
2013-02-26 02:29:00,28.4,8.2,29.96,SSW,213,3.5,3.5,42,0.00,FEW,,0.00,0.0,WeatherDisplay:10.37,2013-02-26 09:29:00,
2013-02-26 02:31:00,28.5,8.3,29.96,SSW,213,3.5,3.5,42,0.00,FEW,,0.00,0.0,WeatherDisplay:10.37,2013-02-26 09:31:00,
2013-02-26 02:33:00,28.5,8.3,29.96,SW,222,2.3,2.3,42,0.00,FEW,,0.00,0.0,WeatherDisplay:10.37,2013-02-26 09:33:00,
2013-02-26 02:34:00,28.5,8.8,29.96,SW,234,3.5,3.5,43,0.00,FEW,,0.00,0.0,WeatherDisplay:10.37,2013-02-26 09:34:00,
2013-02-26 02:38:00,28.2,8.5,29.96,SW,232,3.5,3.5,43,0.00,FEW,,0.00,0.0,WeatherDisplay:10.37,2013-02-26 09:38:00,
2013-02-26 02:39:00,28.2,8.5,29.96,SW,231,3.5,3.5,43,0.00,FEW,,0.00,0.0,WeatherDisplay:10.37,2013-02-26 09:39:00,
2013-02-26 02:43:00,27.9,8.3,29.96,SW,232,2.3,2.3,43,0.00,FEW,,0.00,0.0,WeatherDisplay:10.37,2013-02-26 09:43:00,
2013-02-26 02:44:00,27.9,8.3,29.96,SW,232,3.5,3.5,43,0.00,FEW,,0.00,0.0,WeatherDisplay:10.37,2013-02-26 09:44:00,
2013-02-26 02:46:00,27.9,8.8,29.96,SSW,210,3.5,3.5,44,0.00,FEW,,0.00,0.0,WeatherDisplay:10.37,2013-02-26 09:46:00,
2013-02-26 02:49:00,28.1,9.0,29.96,SW,215,2.3,2.3,44,0.00,FEW,,0.00,0.0,WeatherDisplay:10.37,2013-02-26 09:49:00,
2013-02-26 02:52:00,28.0,8.9,29.97,WSW,242,3.5,3.5,44,0.00,FEW,,0.00,0.0,WeatherDisplay:10.37,2013-02-26 09:52:00,
2013-02-26 02:53:00,27.9,8.8,29.97,WSW,243,3.5,3.5,44,0.00,FEW,,0.00,0.0,WeatherDisplay:10.37,2013-02-26 09:53:00,
2013-02-26 02:56:00,27.7,9.1,29.96,WSW,243,1.1,1.2,45,0.00,FEW,,0.00,0.0,WeatherDisplay:10.37,2013-02-26 09:56:00,
2013-02-26 02:59:00,27.8,9.2,29.96,SSW,206,2.3,2.4,45,0.00,FEW,,0.00,0.0,WeatherDisplay:10.37,2013-02-26 09:59:00,
2013-02-26 03:00:00,27.8,9.2,29.96,SSW,200,3.5,3.5,45,0.00,FEW,,0.00,0.0,WeatherDisplay:10.37,2013-02-26 10:00:00,
2013-02-26 03:03:00,27.7,9.1,29.96,SSW,211,3.5,3.5,45,0.00,CLR,,0.00,0.0,WeatherDisplay:10.37,2013-02-26 10:03:00,
2013-02-26 03:05:00,27.6,9.5,29.96,SSW,211,2.3,2.3,46,0.00,CLR,,0.00,0.0,WeatherDisplay:10.37,2013-02-26 10:05:00,
2013-02-26 03:06:00,27.7,9.1,29.95,SSW,211,2.3,2.3,45,0.00,CLR,,0.00,0.0,WeatherDisplay:10.37,2013-02-26 10:06:00,
2013-02-26 03:08:00,27.6,9.5,29.96,SSW,209,3.5,3.5,46,0.00,CLR,,0.00,0.0,WeatherDisplay:10.37,2013-02-26 10:08:00,
2013-02-26 03:09:00,27.7,9.6,29.95,SSW,209,3.5,3.5,46,0.00,CLR,,0.00,0.0,WeatherDisplay:10.37,2013-02-26 10:09:00,
2013-02-26 03:11:00,27.6,9.5,29.95,SW,214,3.5,3.5,46,0.00,CLR,,0.00,0.0,WeatherDisplay:10.37,2013-02-26 10:11:00,
2013-02-26 03:12:00,27.6,9.5,29.95,SW,224,3.5,3.5,46,0.00,CLR,,0.00,0.0,WeatherDisplay:10.37,2013-02-26 10:12:00,
2013-02-26 03:16:00,27.4,9.3,29.95,SW,227,2.3,2.3,46,0.00,CLR,,0.00,0.0,WeatherDisplay:10.37,2013-02-26 10:16:00,
2013-02-26 03:17:00,27.4,9.8,29.95,SW,221,2.3,2.3,47,0.00,CLR,,0.00,0.0,WeatherDisplay:10.37,2013-02-26 10:17:00,
2013-02-26 03:18:00,27.5,9.9,29.95,SSW,206,3.5,3.5,47,0.00,CLR,,0.00,0.0,WeatherDisplay:10.37,2013-02-26 10:18:00,
2013-02-26 03:22:00,27.7,10.1,29.95,SSW,197,3.5,3.5,47,0.00,CLR,,0.00,0.0,WeatherDisplay:10.37,2013-02-26 10:22:00,
2013-02-26 03:23:00,27.7,9.6,29.95,SSW,199,3.5,3.5,46,0.00,CLR,,0.00,0.0,WeatherDisplay:10.37,2013-02-26 10:23:00,
2013-02-26 03:25:00,27.6,10.0,29.95,SSW,213,3.5,3.5,47,0.00,CLR,,0.00,0.0,WeatherDisplay:10.37,2013-02-26 10:25:00,
2013-02-26 03:26:00,27.5,9.9,29.95,SW,225,3.5,3.5,47,0.00,CLR,,0.00,0.0,WeatherDisplay:10.37,2013-02-26 10:26:00,
2013-02-26 03:29:00,27.3,9.7,29.95,WSW,242,3.5,3.5,47,0.00,CLR,,0.00,0.0,WeatherDisplay:10.37,2013-02-26 10:29:00,
2013-02-26 03:30:00,27.2,10.1,29.95,SW,225,3.5,3.5,48,0.00,CLR,,0.00,0.0,WeatherDisplay:10.37,2013-02-26 10:30:00,
2013-02-26 03:31:00,27.2,10.1,29.95,SW,225,3.5,3.5,48,0.00,CLR,,0.00,0.0,WeatherDisplay:10.37,2013-02-26 10:31:00,
2013-02-26 03:36:00,27.1,10.0,29.95,WSW,238,3.5,3.5,48,0.00,CLR,,0.00,0.0,WeatherDisplay:10.37,2013-02-26 10:36:00,
2013-02-26 03:38:00,27.0,9.9,29.95,WSW,238,0.0,0.0,48,0.00,CLR,,0.00,0.0,WeatherDisplay:10.37,2013-02-26 10:38:00,
2013-02-26 03:40:00,26.8,9.7,29.95,WSW,238,0.0,0.0,48,0.00,CLR,,0.00,0.0,WeatherDisplay:10.37,2013-02-26 10:40:00,
2013-02-26 03:41:00,26.7,10.1,29.95,WSW,238,0.0,0.0,49,0.00,CLR,,0.00,0.0,WeatherDisplay:10.37,2013-02-26 10:41:00,
2013-02-26 03:43:00,26.7,10.1,29.95,WSW,238,1.1,1.1,49,0.00,CLR,,0.00,0.0,WeatherDisplay:10.37,2013-02-26 10:43:00,
2013-02-26 03:46:00,26.4,9.8,29.95,WSW,238,2.3,2.3,49,0.00,CLR,,0.00,0.0,WeatherDisplay:10.37,2013-02-26 10:46:00,
2013-02-26 03:48:00,26.1,9.5,29.95,WSW,238,2.3,2.3,49,0.00,CLR,,0.00,0.0,WeatherDisplay:10.37,2013-02-26 10:48:00,
2013-02-26 03:49:00,26.1,9.5,29.95,WSW,238,2.3,2.3,49,0.00,CLR,,0.00,0.0,WeatherDisplay:10.37,2013-02-26 10:49:00,
2013-02-26 03:51:00,26.0,9.9,29.96,WSW,238,2.3,2.3,50,0.00,CLR,,0.00,0.0,WeatherDisplay:10.37,2013-02-26 10:51:00,
2013-02-26 03:52:00,26.0,9.9,29.96,WSW,238,2.3,2.3,50,0.00,CLR,,0.00,0.0,WeatherDisplay:10.37,2013-02-26 10:52:00,
2013-02-26 03:56:00,25.5,9.4,29.96,West,268,3.5,3.5,50,0.00,CLR,,0.00,0.0,WeatherDisplay:10.37,2013-02-26 10:56:00,
2013-02-26 03:57:00,25.4,9.8,29.96,West,268,3.5,3.5,51,0.00,CLR,,0.00,0.0,WeatherDisplay:10.37,2013-02-26 10:57:00,
2013-02-26 03:58:00,25.3,9.7,29.96,West,268,2.3,2.3,51,0.00,CLR,,0.00,0.0,WeatherDisplay:10.37,2013-02-26 10:58:00,
2013-02-26 03:59:00,25.3,9.7,29.96,West,268,3.5,3.5,51,0.00,CLR,,0.00,0.0,WeatherDisplay:10.37,2013-02-26 10:59:00,
2013-02-26 04:01:00,25.1,9.0,29.96,West,268,3.5,3.5,50,0.00,CLR,,0.00,0.0,WeatherDisplay:10.37,2013-02-26 11:01:00,
2013-02-26 04:03:00,24.9,8.9,29.96,West,268,3.5,3.5,50,0.00,CLR,,0.00,0.0,WeatherDisplay:10.37,2013-02-26 11:03:00,
2013-02-26 04:05:00,24.7,8.2,29.96,West,268,3.5,3.5,49,0.00,CLR,,0.00,0.0,WeatherDisplay:10.37,2013-02-26 11:05:00,
2013-02-26 04:06:00,24.6,8.1,29.96,West,268,2.3,2.3,49,0.00,CLR,,0.00,0.0,WeatherDisplay:10.37,2013-02-26 11:06:00,
2013-02-26 04:07:00,24.5,8.0,29.96,West,268,3.0,3.0,49,0.00,CLR,,0.00,0.0,WeatherDisplay:10.37,2013-02-26 11:07:00,
2013-02-26 04:10:00,24.4,7.9,29.96,West,268,2.3,2.3,49,0.00,CLR,,0.00,0.0,WeatherDisplay:10.37,2013-02-26 11:10:00,
2013-02-26 04:11:00,24.3,7.9,29.95,West,268,2.3,2.3,49,0.00,CLR,,0.00,0.0,WeatherDisplay:10.37,2013-02-26 11:11:00,
2013-02-26 04:13:00,24.2,7.8,29.95,West,268,2.3,2.3,49,0.00,CLR,,0.00,0.0,WeatherDisplay:10.37,2013-02-26 11:13:00,
2013-02-26 04:14:00,24.2,7.8,29.95,West,268,2.3,2.3,49,0.00,CLR,,0.00,0.0,WeatherDisplay:10.37,2013-02-26 11:14:00,
2013-02-26 04:17:00,24.0,7.6,29.95,West,268,2.3,2.3,49,0.00,CLR,,0.00,0.0,WeatherDisplay:10.37,2013-02-26 11:17:00,
2013-02-26 04:21:00,23.7,7.3,29.95,West,268,2.3,2.3,49,0.00,CLR,,0.00,0.0,WeatherDisplay:10.37,2013-02-26 11:21:00,
2013-02-26 04:23:00,23.6,7.2,29.95,West,268,2.3,2.3,49,0.00,CLR,,0.00,0.0,WeatherDisplay:10.37,2013-02-26 11:23:00,
2013-02-26 04:24:00,23.6,7.2,29.95,West,268,2.3,2.3,49,0.00,CLR,,0.00,0.0,WeatherDisplay:10.37,2013-02-26 11:24:00,
2013-02-26 04:25:00,23.6,7.2,29.95,West,268,3.5,3.5,49,0.00,CLR,,0.00,0.0,WeatherDisplay:10.37,2013-02-26 11:25:00,
2013-02-26 04:26:00,23.6,7.2,29.95,West,268,2.3,2.3,49,0.00,CLR,,0.00,0.0,WeatherDisplay:10.37,2013-02-26 11:26:00,
2013-02-26 04:28:00,23.6,7.2,29.95,West,268,2.3,2.3,49,0.00,CLR,,0.00,0.0,WeatherDisplay:10.37,2013-02-26 11:28:00,
2013-02-26 04:30:00,23.5,7.1,29.95,West,268,2.3,2.3,49,0.00,CLR,,0.00,0.0,WeatherDisplay:10.37,2013-02-26 11:30:00,
2013-02-26 04:31:00,23.4,7.0,29.95,West,268,2.3,2.3,49,0.00,CLR,,0.00,0.0,WeatherDisplay:10.37,2013-02-26 11:31:00,
2013-02-26 04:33:00,23.3,6.9,29.94,West,268,2.3,2.3,49,0.00,CLR,,0.00,0.0,WeatherDisplay:10.37,2013-02-26 11:33:00,
2013-02-26 04:35:00,23.3,6.9,29.94,West,268,2.3,2.3,49,0.00,CLR,,0.00,0.0,WeatherDisplay:10.37,2013-02-26 11:35:00,
2013-02-26 04:36:00,23.3,6.9,29.95,West,268,2.3,2.3,49,0.00,CLR,,0.00,0.0,WeatherDisplay:10.37,2013-02-26 11:36:00,
2013-02-26 04:38:00,23.3,7.4,29.94,West,268,2.3,2.3,50,0.00,CLR,,0.00,0.0,WeatherDisplay:10.37,2013-02-26 11:38:00,
2013-02-26 04:41:00,23.2,7.3,29.94,West,268,3.5,3.5,50,0.00,CLR,,0.00,0.0,WeatherDisplay:10.37,2013-02-26 11:41:00,
2013-02-26 04:42:00,23.1,7.2,29.95,West,268,2.3,2.3,50,0.00,CLR,,0.00,0.0,WeatherDisplay:10.37,2013-02-26 11:42:00,
2013-02-26 04:44:00,23.0,7.5,29.95,West,268,2.3,2.3,51,0.00,CLR,,0.00,0.0,WeatherDisplay:10.37,2013-02-26 11:44:00,
2013-02-26 04:46:00,23.0,7.5,29.95,West,268,2.3,2.3,51,0.00,CLR,,0.00,0.0,WeatherDisplay:10.37,2013-02-26 11:46:00,
2013-02-26 04:47:00,22.9,7.4,29.94,West,268,2.3,2.3,51,0.00,CLR,,0.00,0.0,WeatherDisplay:10.37,2013-02-26 11:47:00,
2013-02-26 04:48:00,22.9,7.4,29.95,West,268,2.3,2.3,51,0.00,CLR,,0.00,0.0,WeatherDisplay:10.37,2013-02-26 11:48:00,
2013-02-26 04:50:00,22.8,7.4,29.94,West,268,2.3,2.3,51,0.00,CLR,,0.00,0.0,WeatherDisplay:10.37,2013-02-26 11:50:00,
2013-02-26 04:51:00,22.8,7.4,29.95,West,268,2.3,2.3,51,0.00,CLR,,0.00,0.0,WeatherDisplay:10.37,2013-02-26 11:51:00,
2013-02-26 04:53:00,22.8,7.4,29.95,West,268,2.3,2.3,51,0.00,CLR,,0.00,0.0,WeatherDisplay:10.37,2013-02-26 11:53:00,
2013-02-26 04:54:00,22.8,7.4,29.95,West,268,2.3,2.3,51,0.00,CLR,,0.00,0.0,WeatherDisplay:10.37,2013-02-26 11:54:00,
2013-02-26 04:56:00,22.8,7.4,29.95,West,268,2.3,2.3,51,0.00,CLR,,0.00,0.0,WeatherDisplay:10.37,2013-02-26 11:56:00,
2013-02-26 04:59:00,22.9,7.9,29.95,SW,235,3.5,3.5,52,0.00,CLR,,0.00,0.0,WeatherDisplay:10.37,2013-02-26 11:59:00,
2013-02-26 05:00:00,22.9,7.9,29.95,SW,235,3.5,3.5,52,0.00,CLR,,0.00,0.0,WeatherDisplay:10.37,2013-02-26 12:00:00,
2013-02-26 05:01:00,23.0,8.4,29.95,SW,235,2.3,2.3,53,0.00,CLR,,0.00,0.0,WeatherDisplay:10.37,2013-02-26 12:01:00,
2013-02-26 05:04:00,23.3,8.7,29.95,SW,224,3.5,3.5,53,0.00,CLR,,0.00,0.0,WeatherDisplay:10.37,2013-02-26 12:04:00,
2013-02-26 05:05:00,23.4,8.8,29.95,SW,224,3.5,3.5,53,0.00,CLR,,0.00,0.0,WeatherDisplay:10.37,2013-02-26 12:05:00,
2013-02-26 05:07:00,23.8,9.1,29.95,SW,224,2.3,2.3,53,0.00,CLR,,0.00,0.0,WeatherDisplay:10.37,2013-02-26 12:07:00,
2013-02-26 05:09:00,24.0,9.3,29.95,SSW,193,3.5,3.5,53,0.00,CLR,,0.00,0.0,WeatherDisplay:10.37,2013-02-26 12:09:00,
2013-02-26 05:10:00,24.2,9.5,29.95,SSW,193,3.5,3.5,53,0.00,CLR,,0.00,0.0,WeatherDisplay:10.37,2013-02-26 12:10:00,
2013-02-26 05:12:00,24.3,9.6,29.95,SSW,194,3.5,3.5,53,0.00,CLR,,0.00,0.0,WeatherDisplay:10.37,2013-02-26 12:12:00,
2013-02-26 05:15:00,24.2,9.9,29.95,SW,216,2.3,2.3,54,0.00,CLR,,0.00,0.0,WeatherDisplay:10.37,2013-02-26 12:15:00,
2013-02-26 05:16:00,24.2,9.5,29.95,SW,224,3.5,3.5,53,0.00,CLR,,0.00,0.0,WeatherDisplay:10.37,2013-02-26 12:16:00,
2013-02-26 05:19:00,24.2,9.5,29.95,WSW,252,3.5,3.5,53,0.00,CLR,,0.00,0.0,WeatherDisplay:10.37,2013-02-26 12:19:00,
2013-02-26 05:21:00,24.1,9.4,29.95,WSW,243,3.5,3.5,53,0.00,CLR,,0.00,0.0,WeatherDisplay:10.37,2013-02-26 12:21:00,
2013-02-26 05:22:00,24.2,9.5,29.95,SW,232,3.5,3.5,53,0.00,CLR,,0.00,0.0,WeatherDisplay:10.37,2013-02-26 12:22:00,
2013-02-26 05:24:00,24.4,10.1,29.95,SSW,202,3.5,3.5,54,0.00,CLR,,0.00,0.0,WeatherDisplay:10.37,2013-02-26 12:24:00,
2013-02-26 05:25:00,24.6,10.3,29.95,SW,215,3.5,3.5,54,0.00,CLR,,0.00,0.0,WeatherDisplay:10.37,2013-02-26 12:25:00,
2013-02-26 05:28:00,25.0,11.1,29.95,SW,218,3.5,3.5,55,0.00,CLR,,0.00,0.0,WeatherDisplay:10.37,2013-02-26 12:28:00,
2013-02-26 05:29:00,25.1,11.2,29.94,SSW,212,3.5,3.5,55,0.00,CLR,,0.00,0.0,WeatherDisplay:10.37,2013-02-26 12:29:00,
2013-02-26 05:31:00,25.4,11.5,29.95,SSW,197,3.5,3.5,55,0.00,CLR,,0.00,0.0,WeatherDisplay:10.37,2013-02-26 12:31:00,
2013-02-26 05:33:00,25.6,11.2,29.95,SW,220,3.5,3.5,54,0.00,CLR,,0.00,0.0,WeatherDisplay:10.37,2013-02-26 12:33:00,
2013-02-26 05:34:00,25.7,11.3,29.95,SW,232,3.5,3.5,54,0.00,CLR,,0.00,0.0,WeatherDisplay:10.37,2013-02-26 12:34:00,
2013-02-26 05:35:00,25.8,11.4,29.95,WSW,245,3.5,3.5,54,0.00,CLR,,0.00,0.0,WeatherDisplay:10.37,2013-02-26 12:35:00,
2013-02-26 05:40:00,25.6,10.8,29.95,WSW,245,4.0,4.0,53,0.00,CLR,,0.00,0.0,WeatherDisplay:10.37,2013-02-26 12:40:00,
2013-02-26 05:41:00,25.6,11.2,29.95,WSW,243,3.5,3.5,54,0.00,CLR,,0.00,0.0,WeatherDisplay:10.37,2013-02-26 12:41:00,
2013-02-26 05:45:00,25.6,11.2,29.95,WSW,239,3.5,3.5,54,0.00,CLR,,0.00,0.0,WeatherDisplay:10.37,2013-02-26 12:45:00,
2013-02-26 05:46:00,25.5,11.1,29.95,WSW,242,3.5,3.5,54,0.00,CLR,,0.00,0.0,WeatherDisplay:10.37,2013-02-26 12:46:00,
2013-02-26 05:47:00,25.4,10.6,29.95,WSW,242,3.5,3.5,53,0.00,CLR,,0.00,0.0,WeatherDisplay:10.37,2013-02-26 12:47:00,
2013-02-26 05:49:00,25.2,10.9,29.95,WSW,243,2.3,2.3,54,0.00,CLR,,0.00,0.0,WeatherDisplay:10.37,2013-02-26 12:49:00,
2013-02-26 05:51:00,25.1,10.8,29.95,WSW,243,3.5,3.5,54,0.00,CLR,,0.00,0.0,WeatherDisplay:10.37,2013-02-26 12:51:00,
2013-02-26 05:52:00,25.1,10.8,29.95,WSW,243,2.3,2.3,54,0.00,CLR,,0.00,0.0,WeatherDisplay:10.37,2013-02-26 12:52:00,
2013-02-26 05:54:00,25.2,11.3,29.95,WSW,243,2.3,2.3,55,0.00,CLR,,0.00,0.0,WeatherDisplay:10.37,2013-02-26 12:54:00,
2013-02-26 05:57:00,25.2,11.3,29.95,WSW,243,1.1,1.1,55,0.00,CLR,,0.00,0.0,WeatherDisplay:10.37,2013-02-26 12:57:00,
2013-02-26 05:58:00,25.3,11.4,29.95,WSW,243,1.1,1.1,55,0.00,CLR,,0.00,0.0,WeatherDisplay:10.37,2013-02-26 12:58:00,
2013-02-26 05:59:00,25.4,11.5,29.95,WSW,243,2.3,2.3,55,0.00,CLR,,0.00,0.0,WeatherDisplay:10.37,2013-02-26 12:59:00,
2013-02-26 06:03:00,25.5,11.6,29.94,SSW,192,3.5,3.5,55,0.00,CLR,,0.00,0.0,WeatherDisplay:10.37,2013-02-26 13:03:00,
2013-02-26 06:05:00,25.7,11.7,29.94,SSW,192,2.3,2.3,55,0.00,CLR,,0.00,0.0,WeatherDisplay:10.37,2013-02-26 13:05:00,
2013-02-26 06:08:00,25.6,11.7,29.94,SW,229,3.5,3.5,55,0.00,CLR,,0.00,0.0,WeatherDisplay:10.37,2013-02-26 13:08:00,
2013-02-26 06:09:00,25.5,11.6,29.94,SW,229,3.5,3.5,55,0.00,CLR,,0.00,0.0,WeatherDisplay:10.37,2013-02-26 13:09:00,
2013-02-26 06:10:00,25.5,11.6,29.94,SSW,210,2.3,2.3,55,0.00,CLR,,0.00,0.0,WeatherDisplay:10.37,2013-02-26 13:10:00,
2013-02-26 06:12:00,25.5,11.6,29.94,SSW,193,3.5,3.5,55,0.00,CLR,,0.00,0.0,WeatherDisplay:10.37,2013-02-26 13:12:00,
2013-02-26 06:15:00,25.4,11.5,29.94,SSW,195,3.5,3.5,55,0.00,CLR,,0.00,0.0,WeatherDisplay:10.37,2013-02-26 13:15:00,
2013-02-26 06:17:00,25.2,11.7,29.94,SSW,195,2.3,2.3,56,0.00,CLR,,0.00,0.0,WeatherDisplay:10.37,2013-02-26 13:17:00,
2013-02-26 06:18:00,25.2,11.7,29.94,SSW,195,2.3,2.3,56,0.00,CLR,,0.00,0.0,WeatherDisplay:10.37,2013-02-26 13:18:00,
2013-02-26 06:19:00,25.2,11.7,29.94,SSW,201,3.5,3.5,56,0.00,CLR,,0.00,0.0,WeatherDisplay:10.37,2013-02-26 13:19:00,
2013-02-26 06:22:00,25.5,12.0,29.94,South,182,3.5,3.5,56,0.00,CLR,,0.00,0.0,WeatherDisplay:10.37,2013-02-26 13:22:00,
2013-02-26 06:23:00,25.6,12.1,29.94,South,183,3.5,3.5,56,0.00,CLR,,0.00,0.0,WeatherDisplay:10.37,2013-02-26 13:23:00,
2013-02-26 06:26:00,25.7,12.2,29.94,SW,225,3.5,3.5,56,0.00,CLR,,0.00,0.0,WeatherDisplay:10.37,2013-02-26 13:26:00,
2013-02-26 06:27:00,25.7,11.7,29.94,SW,215,3.5,3.5,55,0.00,CLR,,0.00,0.0,WeatherDisplay:10.37,2013-02-26 13:27:00,
2013-02-26 06:29:00,25.7,12.2,29.94,SSW,194,3.5,3.5,56,0.00,CLR,,0.00,0.0,WeatherDisplay:10.37,2013-02-26 13:29:00,
2013-02-26 06:31:00,25.8,12.2,29.94,SSW,206,4.6,4.6,56,0.00,CLR,,0.00,0.0,WeatherDisplay:10.37,2013-02-26 13:31:00,
2013-02-26 06:35:00,26.0,12.0,29.94,SSW,197,4.6,4.6,55,0.00,CLR,,0.00,0.0,WeatherDisplay:10.37,2013-02-26 13:35:00,
2013-02-26 06:36:00,25.9,11.9,29.94,SSW,211,4.6,4.6,55,0.00,CLR,,0.00,0.0,WeatherDisplay:10.37,2013-02-26 13:36:00,
2013-02-26 06:39:00,25.7,11.7,29.94,SSW,195,4.6,4.6,55,0.00,CLR,,0.00,5.0,WeatherDisplay:10.37,2013-02-26 13:39:00,
2013-02-26 06:40:00,25.7,11.7,29.94,SW,215,4.6,4.6,55,0.00,CLR,,0.00,5.0,WeatherDisplay:10.37,2013-02-26 13:40:00,
2013-02-26 06:42:00,25.7,11.7,29.94,SW,220,4.0,4.0,55,0.00,CLR,,0.00,5.0,WeatherDisplay:10.37,2013-02-26 13:42:00,
2013-02-26 06:43:00,25.7,12.2,29.94,SW,227,4.6,4.6,56,0.00,CLR,,0.00,7.0,WeatherDisplay:10.37,2013-02-26 13:43:00,
2013-02-26 06:45:00,25.7,11.7,29.94,SSW,200,4.6,4.6,55,0.00,CLR,,0.00,7.0,WeatherDisplay:10.37,2013-02-26 13:45:00,
2013-02-26 06:47:00,25.7,12.2,29.93,SW,224,5.8,5.8,56,0.00,CLR,,0.00,9.0,WeatherDisplay:10.37,2013-02-26 13:47:00,
2013-02-26 06:49:00,25.7,12.2,29.94,SSW,212,4.6,4.6,56,0.00,CLR,,0.00,9.0,WeatherDisplay:10.37,2013-02-26 13:49:00,
2013-02-26 06:51:00,25.8,12.2,29.94,SW,214,3.5,3.5,56,0.00,CLR,,0.00,11.0,WeatherDisplay:10.37,2013-02-26 13:51:00,
2013-02-26 06:53:00,25.7,12.2,29.94,SW,235,6.9,6.9,56,0.00,CLR,,0.00,11.0,WeatherDisplay:10.37,2013-02-26 13:53:00,
2013-02-26 06:55:00,25.6,12.1,29.93,SSW,211,6.9,6.9,56,0.00,CLR,,0.00,12.0,WeatherDisplay:10.37,2013-02-26 13:55:00,
2013-02-26 06:58:00,25.9,12.3,29.94,SSW,196,4.6,4.7,56,0.00,CLR,,0.00,12.0,WeatherDisplay:10.37,2013-02-26 13:58:00,
2013-02-26 07:00:00,26.0,12.0,29.94,SW,225,6.9,6.9,55,0.00,CLR,,0.00,14.0,WeatherDisplay:10.37,2013-02-26 14:00:00,
2013-02-26 07:01:00,26.0,12.0,29.94,WSW,244,6.0,6.0,55,0.00,CLR,,0.00,14.0,WeatherDisplay:10.37,2013-02-26 14:01:00,
2013-02-26 07:02:00,25.9,11.9,29.94,WSW,242,5.8,5.8,55,0.00,CLR,,0.00,16.0,WeatherDisplay:10.37,2013-02-26 14:02:00,
2013-02-26 07:04:00,25.9,11.9,29.93,WSW,243,3.5,3.5,55,0.00,CLR,,0.00,16.0,WeatherDisplay:10.37,2013-02-26 14:04:00,
2013-02-26 07:06:00,25.8,11.8,29.93,SW,236,4.6,4.6,55,0.00,CLR,,0.00,18.0,WeatherDisplay:10.37,2013-02-26 14:06:00,
2013-02-26 07:07:00,25.8,11.8,29.93,SW,235,4.6,4.6,55,0.00,CLR,,0.00,19.0,WeatherDisplay:10.37,2013-02-26 14:07:00,
2013-02-26 07:10:00,26.0,12.4,29.93,SW,231,5.8,5.8,56,0.00,CLR,,0.00,23.0,WeatherDisplay:10.37,2013-02-26 14:10:00,
2013-02-26 07:12:00,26.1,12.1,29.93,WSW,242,6.9,6.9,55,0.00,CLR,,0.00,30.0,WeatherDisplay:10.37,2013-02-26 14:12:00,
2013-02-26 07:14:00,26.4,12.4,29.93,WSW,257,5.8,5.8,55,0.00,CLR,,0.00,33.0,WeatherDisplay:10.37,2013-02-26 14:14:00,
2013-02-26 07:15:00,26.5,12.5,29.93,WSW,258,3.5,3.5,55,0.00,CLR,,0.00,35.0,WeatherDisplay:10.37,2013-02-26 14:15:00,
2013-02-26 07:17:00,26.5,12.5,29.93,West,261,3.5,3.5,55,0.00,CLR,,0.00,40.0,WeatherDisplay:10.37,2013-02-26 14:17:00,
2013-02-26 07:21:00,26.9,12.5,29.93,WSW,254,3.5,3.6,54,0.00,CLR,,0.00,53.0,WeatherDisplay:10.37,2013-02-26 14:21:00,
2013-02-26 07:23:00,27.1,12.6,29.93,SW,235,4.6,4.6,54,0.00,CLR,,0.00,60.0,WeatherDisplay:10.37,2013-02-26 14:23:00,
2013-02-26 07:24:00,27.2,12.7,29.93,SW,224,4.6,4.6,54,0.00,CLR,,0.00,65.0,WeatherDisplay:10.37,2013-02-26 14:24:00,
2013-02-26 07:28:00,27.9,12.5,29.93,South,188,5.8,5.8,52,0.00,CLR,,0.00,77.0,WeatherDisplay:10.37,2013-02-26 14:28:00,
2013-02-26 07:29:00,28.0,12.6,29.93,South,189,3.5,3.5,52,0.00,CLR,,0.00,81.0,WeatherDisplay:10.37,2013-02-26 14:29:00,
2013-02-26 07:31:00,28.2,12.4,29.93,SSW,210,3.5,3.5,51,0.00,CLR,,0.00,91.0,WeatherDisplay:10.37,2013-02-26 14:31:00,
2013-02-26 07:33:00,28.4,12.6,29.93,SSW,195,3.5,3.5,51,0.00,CLR,,0.00,98.0,WeatherDisplay:10.37,2013-02-26 14:33:00,
2013-02-26 07:34:00,28.5,12.6,29.93,South,184,4.6,4.6,51,0.00,CLR,,0.00,104.0,WeatherDisplay:10.37,2013-02-26 14:34:00,
2013-02-26 07:38:00,28.8,12.9,29.94,SSW,204,4.6,4.6,51,0.00,CLR,,0.00,121.0,WeatherDisplay:10.37,2013-02-26 14:38:00,
2013-02-26 07:39:00,28.8,12.9,29.93,SW,225,4.6,4.6,51,0.00,CLR,,0.00,125.0,WeatherDisplay:10.37,2013-02-26 14:39:00,
2013-02-26 07:40:00,29.0,13.1,29.93,WSW,241,4.6,4.6,51,0.00,CLR,,0.00,128.0,WeatherDisplay:10.37,2013-02-26 14:40:00,
2013-02-26 07:45:00,29.4,13.5,29.93,SW,216,5.8,5.8,51,0.00,CLR,,0.00,153.0,WeatherDisplay:10.37,2013-02-26 14:45:00,
2013-02-26 07:46:00,29.4,13.5,29.93,SSW,197,4.6,4.6,51,0.00,CLR,,0.00,156.0,WeatherDisplay:10.37,2013-02-26 14:46:00,
2013-02-26 07:47:00,29.5,13.6,29.94,South,185,4.6,4.6,51,0.00,CLR,,0.00,160.0,WeatherDisplay:10.37,2013-02-26 14:47:00,
2013-02-26 07:51:00,29.7,13.8,29.93,SSE,150,5.8,5.8,51,0.00,CLR,,0.00,181.0,WeatherDisplay:10.37,2013-02-26 14:51:00,
2013-02-26 07:52:00,29.7,13.8,29.93,South,170,5.8,5.8,51,0.00,CLR,,0.00,185.0,WeatherDisplay:10.37,2013-02-26 14:52:00,
2013-02-26 07:53:00,29.8,13.9,29.93,SSE,160,5.8,5.8,51,0.00,CLR,,0.00,190.0,WeatherDisplay:10.37,2013-02-26 14:53:00,
2013-02-26 07:57:00,30.7,15.1,29.94,South,173,9.2,9.2,52,0.00,CLR,,0.00,209.0,WeatherDisplay:10.37,2013-02-26 14:57:00,
2013-02-26 08:00:00,31.0,15.4,29.93,South,173,3.5,3.8,52,0.00,CLR,,0.00,227.0,WeatherDisplay:10.37,2013-02-26 15:00:00,
2013-02-26 08:04:00,31.0,15.4,29.93,SE,136,6.9,6.9,52,0.00,CLR,,0.00,243.0,WeatherDisplay:10.37,2013-02-26 15:04:00,
2013-02-26 08:05:00,31.0,15.4,29.93,SSE,165,5.8,5.8,52,0.00,CLR,,0.00,250.0,WeatherDisplay:10.37,2013-02-26 15:05:00,
2013-02-26 08:10:00,31.1,15.1,29.93,SSE,160,6.9,6.9,51,0.00,CLR,,0.00,269.0,WeatherDisplay:10.37,2013-02-26 15:10:00,
2013-02-26 08:11:00,31.1,15.1,29.94,SSE,155,5.8,5.8,51,0.00,CLR,,0.00,276.0,WeatherDisplay:10.37,2013-02-26 15:11:00,
2013-02-26 08:12:00,31.1,15.1,29.93,SSW,195,8.1,8.1,51,0.00,CLR,,0.00,278.0,WeatherDisplay:10.37,2013-02-26 15:12:00,
2013-02-26 08:15:00,31.2,15.2,29.93,SSE,168,6.9,6.9,51,0.00,CLR,,0.00,287.0,WeatherDisplay:10.37,2013-02-26 15:15:00,
2013-02-26 08:17:00,31.4,15.3,29.93,SE,133,6.9,6.9,51,0.00,CLR,,0.00,297.0,WeatherDisplay:10.37,2013-02-26 15:17:00,
2013-02-26 08:21:00,32.0,15.4,29.93,South,171,6.9,6.9,50,0.00,CLR,,0.00,309.0,WeatherDisplay:10.37,2013-02-26 15:21:00,
2013-02-26 08:23:00,32.1,15.5,29.93,SSE,162,11.5,11.5,50,0.00,CLR,,0.00,318.0,WeatherDisplay:10.37,2013-02-26 15:23:00,
2013-02-26 08:25:00,32.4,15.8,29.93,SSE,164,8.0,8.0,50,0.00,CLR,,0.00,325.0,WeatherDisplay:10.37,2013-02-26 15:25:00,
2013-02-26 08:27:00,32.7,15.6,29.93,South,179,5.8,5.8,49,0.00,CLR,,0.00,330.0,WeatherDisplay:10.37,2013-02-26 15:27:00,
2013-02-26 08:29:00,32.9,15.8,29.93,SE,146,8.1,8.1,49,0.00,CLR,,0.00,339.0,WeatherDisplay:10.37,2013-02-26 15:29:00,
2013-02-26 08:32:00,33.0,15.9,29.93,SSE,148,8.1,8.1,49,0.00,CLR,,0.00,348.0,WeatherDisplay:10.37,2013-02-26 15:32:00,
2013-02-26 08:34:00,33.0,15.9,29.93,SE,145,9.2,9.2,49,0.00,CLR,,0.00,355.0,WeatherDisplay:10.37,2013-02-26 15:34:00,
2013-02-26 08:35:00,33.1,16.0,29.93,SSE,158,8.1,8.1,49,0.00,CLR,,0.00,360.0,WeatherDisplay:10.37,2013-02-26 15:35:00,
2013-02-26 08:40:00,33.5,15.9,29.93,SSE,147,10.4,10.4,48,0.00,CLR,,0.00,380.0,WeatherDisplay:10.37,2013-02-26 15:40:00,
2013-02-26 08:41:00,33.5,15.9,29.93,SE,141,8.1,8.1,48,0.00,CLR,,0.00,383.0,WeatherDisplay:10.37,2013-02-26 15:41:00,
2013-02-26 08:42:00,33.6,16.0,29.93,SSE,154,6.9,6.9,48,0.00,CLR,,0.00,385.0,WeatherDisplay:10.37,2013-02-26 15:42:00,
2013-02-26 08:46:00,33.8,15.2,29.93,SSE,168,8.1,8.1,46,0.00,CLR,,0.00,399.0,WeatherDisplay:10.37,2013-02-26 15:46:00,
2013-02-26 08:48:00,33.9,15.3,29.94,SSE,165,8.1,8.1,46,0.00,CLR,,0.00,408.0,WeatherDisplay:10.37,2013-02-26 15:48:00,
2013-02-26 08:49:00,33.9,15.3,29.93,SSE,154,6.9,6.9,46,0.00,CLR,,0.00,410.0,WeatherDisplay:10.37,2013-02-26 15:49:00,
2013-02-26 08:51:00,34.1,14.9,29.94,SE,145,8.1,8.1,45,0.00,CLR,,0.00,417.0,WeatherDisplay:10.37,2013-02-26 15:51:00,
2013-02-26 08:54:00,34.2,14.5,29.94,SE,146,12.7,12.7,44,0.00,CLR,,0.00,429.0,WeatherDisplay:10.37,2013-02-26 15:54:00,
2013-02-26 08:55:00,34.3,14.6,29.94,SSE,168,9.2,9.2,44,0.00,CLR,,0.00,431.0,WeatherDisplay:10.37,2013-02-26 15:55:00,
2013-02-26 08:57:00,34.5,14.3,29.94,South,181,9.2,9.2,43,0.00,CLR,,0.00,438.0,WeatherDisplay:10.37,2013-02-26 15:57:00,
2013-02-26 09:00:00,34.8,14.5,29.94,SE,138,8.1,8.1,43,0.00,CLR,,0.00,448.0,WeatherDisplay:10.37,2013-02-26 16:00:00,
2013-02-26 09:02:00,35.0,14.2,29.94,SSE,162,11.5,11.5,42,0.00,CLR,,0.00,455.0,WeatherDisplay:10.37,2013-02-26 16:02:00,
2013-02-26 09:03:00,35.1,14.3,29.94,SE,141,8.1,8.1,42,0.00,CLR,,0.00,457.0,WeatherDisplay:10.37,2013-02-26 16:03:00,
2013-02-26 09:05:00,35.2,14.4,29.94,SSE,159,9.2,9.2,42,0.00,CLR,,0.00,468.0,WeatherDisplay:10.37,2013-02-26 16:05:00,
2013-02-26 09:08:00,35.5,14.6,29.94,South,175,9.0,9.0,42,0.00,CLR,,0.00,476.0,WeatherDisplay:10.37,2013-02-26 16:08:00,
2013-02-26 09:10:00,35.6,14.7,29.94,SSE,166,11.5,11.5,42,0.00,CLR,,0.00,485.0,WeatherDisplay:10.37,2013-02-26 16:10:00,
2013-02-26 09:11:00,35.7,14.8,29.94,South,174,5.8,5.8,42,0.00,CLR,,0.00,489.0,WeatherDisplay:10.37,2013-02-26 16:11:00,
2013-02-26 09:15:00,36.0,14.5,29.94,SE,141,8.1,8.1,41,0.00,CLR,,0.00,499.0,WeatherDisplay:10.37,2013-02-26 16:15:00,
2013-02-26 09:16:00,36.2,14.7,29.94,SE,125,8.1,8.1,41,0.00,CLR,,0.00,506.0,WeatherDisplay:10.37,2013-02-26 16:16:00,
2013-02-26 09:17:00,36.4,14.9,29.94,SSE,160,8.1,8.1,41,0.00,CLR,,0.00,506.0,WeatherDisplay:10.37,2013-02-26 16:17:00,
2013-02-26 09:20:00,37.0,14.9,29.94,SE,132,8.1,8.1,40,0.00,CLR,,0.00,515.0,WeatherDisplay:10.37,2013-02-26 16:20:00,
2013-02-26 09:21:00,37.2,14.5,29.94,SSE,158,6.9,6.9,39,0.00,CLR,,0.00,520.0,WeatherDisplay:10.37,2013-02-26 16:21:00,
2013-02-26 09:23:00,37.1,14.4,29.93,South,170,10.4,10.4,39,0.00,CLR,,0.00,524.0,WeatherDisplay:10.37,2013-02-26 16:23:00,
2013-02-26 09:25:00,37.3,14.0,29.93,SSE,152,10.4,10.4,38,0.00,CLR,,0.00,531.0,WeatherDisplay:10.37,2013-02-26 16:25:00,
2013-02-26 09:30:00,38.0,14.0,29.94,South,174,8.1,8.1,37,0.00,CLR,,0.00,547.0,WeatherDisplay:10.37,2013-02-26 16:30:00,
2013-02-26 09:31:00,38.2,14.2,29.94,SSE,160,5.8,5.8,37,0.00,CLR,,0.00,554.0,WeatherDisplay:10.37,2013-02-26 16:31:00,
2013-02-26 09:33:00,38.4,13.7,29.93,SE,143,11.5,11.5,36,0.00,CLR,,0.00,559.0,WeatherDisplay:10.37,2013-02-26 16:33:00,
2013-02-26 09:37:00,38.1,14.1,29.94,SSE,166,9.2,9.2,37,0.00,CLR,,0.00,571.0,WeatherDisplay:10.37,2013-02-26 16:37:00,
2013-02-26 09:38:00,38.0,14.0,29.94,SE,125,10.4,10.4,37,0.00,CLR,,0.00,573.0,WeatherDisplay:10.37,2013-02-26 16:38:00,
2013-02-26 09:42:00,38.1,13.5,29.94,South,173,5.8,5.8,36,0.00,CLR,,0.00,587.0,WeatherDisplay:10.37,2013-02-26 16:42:00,
2013-02-26 09:43:00,38.3,13.0,29.94,SE,145,11.5,11.5,35,0.00,CLR,,0.00,589.0,WeatherDisplay:10.37,2013-02-26 16:43:00,
2013-02-26 09:48:00,38.7,13.4,29.93,South,180,6.9,6.9,35,0.00,CLR,,0.00,605.0,WeatherDisplay:10.37,2013-02-26 16:48:00,
2013-02-26 09:49:00,38.8,13.4,29.93,South,176,5.8,5.8,35,0.00,CLR,,0.00,608.0,WeatherDisplay:10.37,2013-02-26 16:49:00,
2013-02-26 09:53:00,39.1,13.1,29.93,SE,137,7.0,7.0,34,0.00,CLR,,0.00,621.0,WeatherDisplay:10.37,2013-02-26 16:53:00,
2013-02-26 09:57:00,39.5,13.4,29.93,SE,145,11.5,11.5,34,0.00,CLR,,0.00,631.0,WeatherDisplay:10.37,2013-02-26 16:57:00,
2013-02-26 10:00:00,40.2,14.0,29.93,SSE,161,11.5,11.5,34,0.00,CLR,,0.00,640.0,WeatherDisplay:10.37,2013-02-26 17:00:00,
2013-02-26 10:01:00,40.2,13.3,29.93,SSE,157,6.9,6.9,33,0.00,CLR,,0.00,643.0,WeatherDisplay:10.37,2013-02-26 17:01:00,
2013-02-26 10:05:00,40.0,13.2,29.93,SSE,165,8.1,8.1,33,0.00,CLR,,0.00,654.0,WeatherDisplay:10.37,2013-02-26 17:05:00,
2013-02-26 10:07:00,40.0,13.2,29.93,SSE,166,10.4,10.4,33,0.00,CLR,,0.00,657.0,WeatherDisplay:10.37,2013-02-26 17:07:00,
2013-02-26 10:09:00,39.8,13.7,29.93,SSE,156,5.8,5.8,34,0.00,CLR,,0.00,664.0,WeatherDisplay:10.37,2013-02-26 17:09:00,
2013-02-26 10:11:00,40.8,14.6,29.93,SW,221,2.3,2.3,34,0.00,CLR,,0.00,668.0,WeatherDisplay:10.37,2013-02-26 17:11:00,
2013-02-26 10:14:00,41.4,13.7,29.93,SSW,197,5.8,5.8,32,0.00,CLR,,0.00,679.0,WeatherDisplay:10.37,2013-02-26 17:14:00,
2013-02-26 10:15:00,41.4,13.7,29.93,SSE,162,5.8,5.8,32,0.00,CLR,,0.00,680.0,WeatherDisplay:10.37,2013-02-26 17:15:00,
2013-02-26 10:16:00,41.4,13.7,29.93,SSW,200,5.0,5.0,32,0.00,CLR,,0.00,682.0,WeatherDisplay:10.37,2013-02-26 17:16:00,
2013-02-26 10:20:00,41.5,13.8,29.92,SE,133,3.5,3.5,32,0.00,CLR,,0.00,693.0,WeatherDisplay:10.37,2013-02-26 17:20:00,
2013-02-26 10:22:00,41.8,14.1,29.92,South,190,3.5,3.5,32,0.00,CLR,,0.00,698.0,WeatherDisplay:10.37,2013-02-26 17:22:00,
2013-02-26 10:25:00,42.4,14.6,29.93,East,91,8.1,8.1,32,0.00,CLR,,0.00,703.0,WeatherDisplay:10.37,2013-02-26 17:25:00,
2013-02-26 10:26:00,42.9,14.3,29.92,East,80,3.5,3.5,31,0.00,CLR,,0.00,707.0,WeatherDisplay:10.37,2013-02-26 17:26:00,
2013-02-26 10:30:00,44.6,15.0,29.93,WNW,299,2.3,2.3,30,0.00,CLR,,0.00,715.0,WeatherDisplay:10.37,2013-02-26 17:30:00,
2013-02-26 10:32:00,45.5,15.0,29.93,WSW,245,3.5,3.5,29,0.00,CLR,,0.00,719.0,WeatherDisplay:10.37,2013-02-26 17:32:00,
2013-02-26 10:33:00,45.4,14.1,29.93,WSW,252,3.5,3.5,28,0.00,CLR,,0.00,721.0,WeatherDisplay:10.37,2013-02-26 17:33:00,
2013-02-26 10:36:00,45.7,13.6,29.92,WSW,256,3.5,3.5,27,0.00,CLR,,0.00,726.0,WeatherDisplay:10.37,2013-02-26 17:36:00,
2013-02-26 10:37:00,45.8,14.5,29.92,WSW,255,3.5,3.5,28,0.00,CLR,,0.00,733.0,WeatherDisplay:10.37,2013-02-26 17:37:00,
2013-02-26 10:41:00,45.7,13.6,29.92,SSE,151,3.5,3.5,27,0.00,CLR,,0.00,742.0,WeatherDisplay:10.37,2013-02-26 17:41:00,
2013-02-26 10:42:00,45.3,14.1,29.92,SSE,151,2.3,2.3,28,0.00,CLR,,0.00,744.0,WeatherDisplay:10.37,2013-02-26 17:42:00,
2013-02-26 10:43:00,45.1,13.9,29.92,SE,143,3.5,3.5,28,0.00,CLR,,0.00,747.0,WeatherDisplay:10.37,2013-02-26 17:43:00,
2013-02-26 10:47:00,43.9,13.6,29.92,SW,222,4.6,4.6,29,0.00,CLR,,0.00,756.0,WeatherDisplay:10.37,2013-02-26 17:47:00,
2013-02-26 10:50:00,45.3,14.1,29.92,West,260,3.5,3.5,28,0.00,CLR,,0.00,763.0,WeatherDisplay:10.37,2013-02-26 17:50:00,
2013-02-26 10:52:00,45.8,12.8,29.92,SW,229,3.5,3.5,26,0.00,CLR,,0.00,766.0,WeatherDisplay:10.37,2013-02-26 17:52:00,
2013-02-26 10:55:00,45.4,12.5,29.92,South,179,6.9,6.9,26,0.00,CLR,,0.00,772.0,WeatherDisplay:10.37,2013-02-26 17:55:00,
2013-02-26 10:57:00,45.2,13.1,29.92,SSW,204,5.8,5.8,27,0.00,CLR,,0.00,775.0,WeatherDisplay:10.37,2013-02-26 17:57:00,
2013-02-26 10:58:00,45.2,13.1,29.92,SSW,197,5.8,5.8,27,0.00,CLR,,0.00,779.0,WeatherDisplay:10.37,2013-02-26 17:58:00,
2013-02-26 11:00:00,45.0,13.0,29.92,SSW,197,2.3,2.3,27,0.00,CLR,,0.00,782.0,WeatherDisplay:10.37,2013-02-26 18:00:00,
2013-02-26 11:02:00,45.1,12.2,29.92,SSE,151,10.4,10.4,26,0.00,CLR,,0.00,789.0,WeatherDisplay:10.37,2013-02-26 18:02:00,
2013-02-26 11:03:00,44.9,12.0,29.91,SSE,165,11.5,11.5,26,0.00,CLR,,0.00,793.0,WeatherDisplay:10.37,2013-02-26 18:03:00,
2013-02-26 11:05:00,44.3,12.4,29.91,SSW,208,11.5,11.5,27,0.00,CLR,,0.00,810.0,WeatherDisplay:10.37,2013-02-26 18:05:00,
2013-02-26 11:07:00,45.9,12.9,29.92,WSW,252,11.5,11.5,26,0.00,CLR,,0.00,817.0,WeatherDisplay:10.37,2013-02-26 18:07:00,
2013-02-26 11:08:00,46.7,13.6,29.92,SW,229,9.2,9.2,26,0.00,CLR,,0.00,838.0,WeatherDisplay:10.37,2013-02-26 18:08:00,
2013-02-26 11:13:00,47.6,9.5,29.91,SW,215,20.7,20.7,21,0.00,FEW,,0.00,810.0,WeatherDisplay:10.37,2013-02-26 18:13:00,
2013-02-26 11:14:00,47.8,11.7,29.91,West,281,11.5,11.5,23,0.00,FEW,,0.00,810.0,WeatherDisplay:10.37,2013-02-26 18:14:00,
2013-02-26 11:16:00,48.3,9.0,29.91,WSW,252,19.6,19.6,20,0.00,FEW,,0.00,810.0,WeatherDisplay:10.37,2013-02-26 18:16:00,
2013-02-26 11:19:00,49.0,6.0,29.91,WSW,247,17.3,17.3,17,0.00,FEW,,0.00,823.0,WeatherDisplay:10.37,2013-02-26 18:19:00,
2013-02-26 11:20:00,49.3,6.2,29.91,SW,214,17.3,17.3,17,0.00,FEW,,0.00,823.0,WeatherDisplay:10.37,2013-02-26 18:20:00,
2013-02-26 11:23:00,50.0,5.5,29.91,West,266,16.1,16.1,16,0.00,FEW,,0.00,823.0,WeatherDisplay:10.37,2013-02-26 18:23:00,
2013-02-26 11:25:00,50.3,5.7,29.91,WSW,247,16.1,16.1,16,0.00,FEW,,0.00,831.0,WeatherDisplay:10.37,2013-02-26 18:25:00,
2013-02-26 11:27:00,50.0,5.5,29.91,WNW,285,21.9,21.9,16,0.00,FEW,,0.00,833.0,WeatherDisplay:10.37,2013-02-26 18:27:00,
2013-02-26 11:28:00,49.7,5.2,29.91,WSW,251,21.9,21.9,16,0.00,FEW,,0.00,833.0,WeatherDisplay:10.37,2013-02-26 18:28:00,
2013-02-26 11:30:00,49.8,5.3,29.91,West,279,15.0,15.0,16,0.00,FEW,,0.00,830.0,WeatherDisplay:10.37,2013-02-26 18:30:00,
2013-02-26 11:33:00,49.9,5.4,29.91,SW,235,19.6,19.6,16,0.00,FEW,,0.00,838.0,WeatherDisplay:10.37,2013-02-26 18:33:00,
2013-02-26 11:35:00,50.1,5.6,29.91,SW,233,18.4,18.4,16,0.00,FEW,,0.00,844.0,WeatherDisplay:10.37,2013-02-26 18:35:00,
2013-02-26 11:37:00,50.0,5.5,29.90,West,264,26.5,26.5,16,0.00,FEW,,0.00,837.0,WeatherDisplay:10.37,2013-02-26 18:37:00,
2013-02-26 11:38:00,49.9,5.4,29.91,WNW,297,21.9,21.9,16,0.00,FEW,,0.00,844.0,WeatherDisplay:10.37,2013-02-26 18:38:00,
2013-02-26 11:41:00,49.4,5.0,29.91,WSW,247,25.3,25.3,16,0.00,FEW,,0.00,846.0,WeatherDisplay:10.37,2013-02-26 18:41:00,
2013-02-26 11:44:00,49.4,6.3,29.90,West,280,18.4,18.4,17,0.00,FEW,,0.00,847.0,WeatherDisplay:10.37,2013-02-26 18:44:00,
2013-02-26 11:46:00,50.0,6.8,29.90,WNW,287,19.6,19.6,17,0.00,FEW,,0.00,847.0,WeatherDisplay:10.37,2013-02-26 18:46:00,
2013-02-26 11:47:00,49.9,5.4,29.91,WSW,252,23.0,23.0,16,0.00,FEW,,0.00,849.0,WeatherDisplay:10.37,2013-02-26 18:47:00,
2013-02-26 11:49:00,49.9,6.7,29.91,SSW,210,20.7,20.7,17,0.00,FEW,,0.00,846.0,WeatherDisplay:10.37,2013-02-26 18:49:00,
2013-02-26 11:52:00,49.8,9.1,29.91,West,276,24.2,24.2,19,0.00,FEW,,0.00,853.0,WeatherDisplay:10.37,2013-02-26 18:52:00,
2013-02-26 11:55:00,49.5,8.9,29.91,West,272,18.4,18.4,19,0.00,FEW,,0.00,856.0,WeatherDisplay:10.37,2013-02-26 18:55:00,
2013-02-26 11:56:00,49.2,8.6,29.91,West,272,19.6,19.6,19,0.00,FEW,,0.00,854.0,WeatherDisplay:10.37,2013-02-26 18:56:00,
2013-02-26 11:58:00,49.0,7.3,29.91,WNW,283,25.3,25.3,18,0.00,FEW,,0.00,860.0,WeatherDisplay:10.37,2013-02-26 18:58:00,
2013-02-26 12:01:00,49.7,7.8,29.91,WSW,258,19.6,19.6,18,0.00,FEW,,0.00,858.0,WeatherDisplay:10.37,2013-02-26 19:01:00,
2013-02-26 12:02:00,50.0,9.3,29.91,NW,306,19.6,19.6,19,0.00,FEW,,0.00,856.0,WeatherDisplay:10.37,2013-02-26 19:02:00,
2013-02-26 12:03:00,49.8,9.1,29.91,West,264,21.9,21.9,19,0.00,FEW,,0.00,863.0,WeatherDisplay:10.37,2013-02-26 19:03:00,
2013-02-26 12:07:00,49.0,8.5,29.91,WSW,255,19.6,19.6,19,0.00,FEW,,0.00,867.0,WeatherDisplay:10.37,2013-02-26 19:07:00,
2013-02-26 12:08:00,49.4,8.8,29.90,WNW,291,15.0,15.0,19,0.00,FEW,,0.00,865.0,WeatherDisplay:10.37,2013-02-26 19:08:00,
2013-02-26 12:12:00,49.7,9.0,29.91,West,270,16.1,16.1,19,0.00,FEW,,0.00,867.0,WeatherDisplay:10.37,2013-02-26 19:12:00,
2013-02-26 12:14:00,49.5,8.9,29.90,SW,231,19.6,19.6,19,0.00,FEW,,0.00,868.0,WeatherDisplay:10.37,2013-02-26 19:14:00,
2013-02-26 12:16:00,49.9,9.2,29.90,West,269,15.0,15.0,19,0.00,FEW,,0.00,868.0,WeatherDisplay:10.37,2013-02-26 19:16:00,
2013-02-26 12:17:00,50.0,9.3,29.90,WNW,287,17.3,17.3,19,0.00,FEW,,0.00,867.0,WeatherDisplay:10.37,2013-02-26 19:17:00,
2013-02-26 12:22:00,49.2,9.8,29.91,WNW,293,26.5,26.5,20,0.00,FEW,,0.00,874.0,WeatherDisplay:10.37,2013-02-26 19:22:00,
2013-02-26 12:23:00,48.5,9.2,29.91,NW,308,23.0,23.0,20,0.00,FEW,,0.00,870.0,WeatherDisplay:10.37,2013-02-26 19:23:00,
2013-02-26 12:27:00,47.5,9.4,29.90,SW,233,25.3,25.3,21,0.00,FEW,,0.00,870.0,WeatherDisplay:10.37,2013-02-26 19:27:00,
2013-02-26 12:31:00,48.3,10.1,29.90,WNW,289,16.1,16.1,21,0.00,FEW,,0.00,868.0,WeatherDisplay:10.37,2013-02-26 19:31:00,
2013-02-26 12:32:00,48.7,9.4,29.90,West,260,17.3,17.3,20,0.00,FEW,,0.00,872.0,WeatherDisplay:10.37,2013-02-26 19:32:00,
2013-02-26 12:35:00,49.1,8.5,29.90,WSW,239,26.5,26.5,19,0.00,FEW,,0.00,872.0,WeatherDisplay:10.37,2013-02-26 19:35:00,
2013-02-26 12:37:00,49.2,7.4,29.90,SW,234,18.4,18.4,18,0.00,FEW,,0.00,874.0,WeatherDisplay:10.37,2013-02-26 19:37:00,
2013-02-26 12:38:00,49.2,7.4,29.90,SW,235,18.4,18.4,18,0.00,FEW,,0.00,874.0,WeatherDisplay:10.37,2013-02-26 19:38:00,
2013-02-26 12:42:00,48.3,6.7,29.90,WNW,287,19.6,19.6,18,0.00,FEW,,0.00,870.0,WeatherDisplay:10.37,2013-02-26 19:42:00,
2013-02-26 12:47:00,49.6,7.8,29.90,WNW,294,16.1,16.1,18,0.00,FEW,,0.00,870.0,WeatherDisplay:10.37,2013-02-26 19:47:00,
2013-02-26 12:49:00,49.9,8.0,29.90,West,272,15.0,15.0,18,0.00,FEW,,0.00,874.0,WeatherDisplay:10.37,2013-02-26 19:49:00,
2013-02-26 12:52:00,49.3,7.5,29.90,West,259,31.1,31.1,18,0.00,FEW,,0.00,874.0,WeatherDisplay:10.37,2013-02-26 19:52:00,
2013-02-26 12:54:00,49.0,7.3,29.90,WSW,249,23.0,23.0,18,0.00,FEW,,0.00,870.0,WeatherDisplay:10.37,2013-02-26 19:54:00,
2013-02-26 12:55:00,49.1,7.3,29.90,WSW,256,24.2,24.2,18,0.00,FEW,,0.00,868.0,WeatherDisplay:10.37,2013-02-26 19:55:00,
2013-02-26 13:00:00,49.4,7.6,29.90,West,261,23.0,23.0,18,0.00,FEW,,0.00,863.0,WeatherDisplay:10.37,2013-02-26 20:00:00,
2013-02-26 13:03:00,48.7,7.0,29.89,WNW,284,26.5,26.5,18,0.00,FEW,,0.00,865.0,WeatherDisplay:10.37,2013-02-26 20:03:00,
2013-02-26 13:08:00,47.7,6.2,29.89,WNW,297,25.3,25.3,18,0.00,FEW,,0.00,861.0,WeatherDisplay:10.37,2013-02-26 20:08:00,
2013-02-26 13:10:00,47.2,5.8,29.89,WNW,291,22.0,22.0,18,0.00,FEW,,0.00,861.0,WeatherDisplay:10.37,2013-02-26 20:10:00,
2013-02-26 13:15:00,48.2,6.6,29.89,WNW,299,25.3,25.3,18,0.00,FEW,,0.00,856.0,WeatherDisplay:10.37,2013-02-26 20:15:00,
2013-02-26 13:16:00,48.3,6.7,29.89,WSW,245,27.6,27.6,18,0.00,FEW,,0.00,851.0,WeatherDisplay:10.37,2013-02-26 20:16:00,
2013-02-26 13:18:00,48.4,5.5,29.89,WNW,289,23.0,23.0,17,0.00,FEW,,0.00,856.0,WeatherDisplay:10.37,2013-02-26 20:18:00,
2013-02-26 13:20:00,48.1,5.3,29.90,West,275,18.4,18.4,17,0.00,FEW,,0.00,849.0,WeatherDisplay:10.37,2013-02-26 20:20:00,
2013-02-26 13:24:00,47.9,5.1,29.90,WNW,285,27.6,27.6,17,0.00,FEW,,0.00,842.0,WeatherDisplay:10.37,2013-02-26 20:24:00,
2013-02-26 13:26:00,47.9,5.1,29.89,WNW,285,29.9,29.9,17,0.00,FEW,,0.00,844.0,WeatherDisplay:10.37,2013-02-26 20:26:00,
2013-02-26 13:27:00,47.8,3.7,29.90,West,270,20.7,20.7,16,0.00,FEW,,0.00,840.0,WeatherDisplay:10.37,2013-02-26 20:27:00,
2013-02-26 13:31:00,47.6,2.1,29.89,West,276,27.6,27.6,15,0.00,FEW,,0.00,835.0,WeatherDisplay:10.37,2013-02-26 20:31:00,
2013-02-26 13:32:00,47.5,3.4,29.89,West,266,19.6,19.6,16,0.00,FEW,,0.00,842.0,WeatherDisplay:10.37,2013-02-26 20:32:00,
2013-02-26 13:33:00,47.6,3.5,29.89,WNW,282,21.9,21.9,16,0.00,FEW,,0.00,837.0,WeatherDisplay:10.37,2013-02-26 20:33:00,
2013-02-26 13:36:00,48.2,5.3,29.89,WNW,299,17.3,17.3,17,0.00,FEW,,0.00,837.0,WeatherDisplay:10.37,2013-02-26 20:36:00,
2013-02-26 13:38:00,48.7,4.4,29.89,WSW,250,16.1,16.1,16,0.00,FEW,,0.00,831.0,WeatherDisplay:10.37,2013-02-26 20:38:00,
2013-02-26 13:39:00,48.9,3.2,29.89,West,279,27.6,27.6,15,0.00,FEW,,0.00,830.0,WeatherDisplay:10.37,2013-02-26 20:39:00,
2013-02-26 13:42:00,48.7,3.0,29.90,NNW,337,25.3,25.3,15,0.00,FEW,,0.00,830.0,WeatherDisplay:10.37,2013-02-26 20:42:00,
2013-02-26 13:43:00,48.7,3.0,29.90,WSW,243,23.0,23.0,15,0.00,FEW,,0.00,828.0,WeatherDisplay:10.37,2013-02-26 20:43:00,
2013-02-26 13:44:00,48.5,2.9,29.90,West,272,20.7,20.7,15,0.00,FEW,,0.00,824.0,WeatherDisplay:10.37,2013-02-26 20:44:00,
2013-02-26 13:49:00,48.0,2.5,29.90,WNW,289,21.9,21.9,15,0.00,FEW,,0.00,810.0,WeatherDisplay:10.37,2013-02-26 20:49:00,
2013-02-26 13:50:00,48.0,2.5,29.90,WSW,252,29.9,29.9,15,0.00,FEW,,0.00,819.0,WeatherDisplay:10.37,2013-02-26 20:50:00,
2013-02-26 13:52:00,48.0,2.5,29.90,NNW,335,24.2,24.2,15,0.00,FEW,,0.00,810.0,WeatherDisplay:10.37,2013-02-26 20:52:00,
2013-02-26 13:54:00,48.0,1.0,29.90,West,278,27.6,27.6,14,0.00,FEW,,0.00,812.0,WeatherDisplay:10.37,2013-02-26 20:54:00,
2013-02-26 13:57:00,47.8,0.8,29.90,WNW,290,28.8,28.8,14,0.00,FEW,,0.00,809.0,WeatherDisplay:10.37,2013-02-26 20:57:00,
2013-02-26 13:59:00,47.2,0.3,29.90,West,268,29.9,29.9,14,0.00,FEW,,0.00,805.0,WeatherDisplay:10.37,2013-02-26 20:59:00,
2013-02-26 14:04:00,47.9,0.9,29.90,WSW,241,27.0,27.0,14,0.00,FEW,,0.00,798.0,WeatherDisplay:10.37,2013-02-26 21:04:00,
2013-02-26 14:09:00,47.4,0.5,29.90,WNW,283,26.5,26.5,14,0.00,FEW,,0.00,798.0,WeatherDisplay:10.37,2013-02-26 21:09:00,
2013-02-26 14:10:00,47.2,0.3,29.91,WSW,246,31.1,31.1,14,0.00,FEW,,0.00,791.0,WeatherDisplay:10.37,2013-02-26 21:10:00,
2013-02-26 14:14:00,47.8,0.8,29.90,WNW,283,23.0,23.0,14,0.00,FEW,,0.00,775.0,WeatherDisplay:10.37,2013-02-26 21:14:00,
2013-02-26 14:16:00,47.7,0.7,29.90,West,277,29.9,29.9,14,0.00,FEW,,0.00,784.0,WeatherDisplay:10.37,2013-02-26 21:16:00,
2013-02-26 14:21:00,47.0,-1.4,29.91,West,278,35.7,35.7,13,0.00,FEW,,0.00,759.0,WeatherDisplay:10.37,2013-02-26 21:21:00,
2013-02-26 14:26:00,46.7,-0.1,29.91,NW,309,26.5,26.5,14,0.00,FEW,,0.00,754.0,WeatherDisplay:10.37,2013-02-26 21:26:00,
2013-02-26 14:27:00,46.7,-0.1,29.92,NW,318,33.4,33.4,14,0.00,FEW,,0.00,749.0,WeatherDisplay:10.37,2013-02-26 21:27:00,
2013-02-26 14:31:00,46.1,-0.6,29.91,WNW,285,23.0,23.0,14,0.00,FEW,,0.00,738.0,WeatherDisplay:10.37,2013-02-26 21:31:00,
2013-02-26 14:34:00,46.7,-0.1,29.92,West,270,19.6,19.6,14,0.00,FEW,,0.00,731.0,WeatherDisplay:10.37,2013-02-26 21:34:00,
2013-02-26 14:38:00,46.4,2.6,29.92,WNW,296,27.6,27.6,16,0.00,FEW,,0.00,722.0,WeatherDisplay:10.37,2013-02-26 21:38:00,
2013-02-26 14:40:00,46.2,2.4,29.92,WNW,288,21.9,21.9,16,0.00,FEW,,0.00,719.0,WeatherDisplay:10.37,2013-02-26 21:40:00,
2013-02-26 14:43:00,46.0,2.2,29.92,WNW,299,19.6,19.6,16,0.00,FEW,,0.00,710.0,WeatherDisplay:10.37,2013-02-26 21:43:00,
2013-02-26 14:45:00,45.8,2.1,29.92,WSW,253,25.0,25.0,16,0.00,FEW,,0.00,717.0,WeatherDisplay:10.37,2013-02-26 21:45:00,
2013-02-26 14:49:00,45.8,0.7,29.92,WNW,299,21.9,21.9,15,0.00,FEW,,0.00,701.0,WeatherDisplay:10.37,2013-02-26 21:49:00,
2013-02-26 14:51:00,46.3,1.1,29.92,West,264,21.9,21.9,15,0.00,FEW,,0.00,691.0,WeatherDisplay:10.37,2013-02-26 21:51:00,
2013-02-26 14:55:00,46.2,1.0,29.92,West,267,20.7,20.7,15,0.00,FEW,,0.00,673.0,WeatherDisplay:10.37,2013-02-26 21:55:00,
2013-02-26 14:56:00,46.3,1.1,29.92,SW,230,25.3,25.3,15,0.00,FEW,,0.00,677.0,WeatherDisplay:10.37,2013-02-26 21:56:00,
2013-02-26 15:01:00,46.1,2.3,29.92,WNW,299,24.2,24.2,16,0.00,FEW,,0.00,668.0,WeatherDisplay:10.37,2013-02-26 22:01:00,
2013-02-26 15:03:00,46.0,0.8,29.92,West,280,25.3,25.3,15,0.00,FEW,,0.00,661.0,WeatherDisplay:10.37,2013-02-26 22:03:00,
2013-02-26 15:06:00,46.4,1.2,29.92,West,268,27.6,27.6,15,0.00,FEW,,0.00,656.0,WeatherDisplay:10.37,2013-02-26 22:06:00,
2013-02-26 15:08:00,46.3,1.1,29.93,West,270,24.2,24.2,15,0.00,FEW,,0.00,650.0,WeatherDisplay:10.37,2013-02-26 22:08:00,
2013-02-26 15:11:00,45.6,0.5,29.93,WSW,246,31.1,31.1,15,0.00,FEW,,0.00,638.0,WeatherDisplay:10.37,2013-02-26 22:11:00,
2013-02-26 15:16:00,45.3,0.3,29.93,WNW,287,23.0,23.0,15,0.00,FEW,,0.00,635.0,WeatherDisplay:10.37,2013-02-26 22:16:00,
2013-02-26 15:17:00,45.4,0.4,29.93,West,266,23.0,23.0,15,0.00,FEW,,0.00,631.0,WeatherDisplay:10.37,2013-02-26 22:17:00,
2013-02-26 15:22:00,45.4,0.4,29.93,WSW,256,24.2,24.2,15,0.00,FEW,,0.00,615.0,WeatherDisplay:10.37,2013-02-26 22:22:00,
2013-02-26 15:23:00,45.4,0.4,29.93,West,271,27.6,27.6,15,0.00,FEW,,0.00,610.0,WeatherDisplay:10.37,2013-02-26 22:23:00,
2013-02-26 15:27:00,45.2,0.2,29.94,WSW,237,19.6,19.6,15,0.00,FEW,,0.00,596.0,WeatherDisplay:10.37,2013-02-26 22:27:00,
2013-02-26 15:28:00,45.4,0.4,29.94,WNW,287,21.9,21.9,15,0.00,FEW,,0.00,592.0,WeatherDisplay:10.37,2013-02-26 22:28:00,
2013-02-26 15:33:00,44.7,-0.2,29.94,WSW,244,26.5,26.5,15,0.00,FEW,,0.00,582.0,WeatherDisplay:10.37,2013-02-26 22:33:00,
2013-02-26 15:34:00,44.9,-0.1,29.94,WSW,241,23.0,23.0,15,0.00,FEW,,0.00,575.0,WeatherDisplay:10.37,2013-02-26 22:34:00,
2013-02-26 15:39:00,45.2,0.2,29.94,WNW,295,19.6,19.6,15,0.00,FEW,,0.00,548.0,WeatherDisplay:10.37,2013-02-26 22:39:00,
2013-02-26 15:42:00,45.1,-1.4,29.94,West,268,25.3,25.3,14,0.00,FEW,,0.00,476.0,WeatherDisplay:10.37,2013-02-26 22:42:00,
2013-02-26 15:44:00,44.9,-1.5,29.94,WSW,243,25.3,25.3,14,0.00,FEW,,0.00,476.0,WeatherDisplay:10.37,2013-02-26 22:44:00,
2013-02-26 15:48:00,45.2,-1.3,29.94,WSW,249,21.9,21.9,14,0.00,FEW,,0.00,531.0,WeatherDisplay:10.37,2013-02-26 22:48:00,
2013-02-26 15:50:00,45.7,-0.9,29.94,SW,227,19.6,19.6,14,0.00,FEW,,0.00,520.0,WeatherDisplay:10.37,2013-02-26 22:50:00,
2013-02-26 15:53:00,45.1,-1.4,29.94,WNW,299,24.2,24.2,14,0.00,FEW,,0.00,501.0,WeatherDisplay:10.37,2013-02-26 22:53:00,
2013-02-26 15:55:00,44.6,-1.8,29.94,NNW,339,24.2,24.2,14,0.00,FEW,,0.00,427.0,WeatherDisplay:10.37,2013-02-26 22:55:00,
2013-02-26 15:58:00,44.0,0.6,29.94,West,279,25.3,25.3,16,0.00,FEW,,0.00,496.0,WeatherDisplay:10.37,2013-02-26 22:58:00,
2013-02-26 16:01:00,44.0,0.6,29.94,WNW,299,15.0,15.0,16,0.00,FEW,,0.00,482.0,WeatherDisplay:10.37,2013-02-26 23:01:00,
2013-02-26 16:03:00,43.9,0.5,29.95,WNW,285,28.8,28.8,16,0.00,FEW,,0.00,473.0,WeatherDisplay:10.37,2013-02-26 23:03:00,
2013-02-26 16:07:00,43.7,0.3,29.94,NW,326,18.4,18.4,16,0.00,FEW,,0.00,450.0,WeatherDisplay:10.37,2013-02-26 23:07:00,
2013-02-26 16:08:00,43.8,0.4,29.94,WNW,302,21.9,21.9,16,0.00,FEW,,0.00,445.0,WeatherDisplay:10.37,2013-02-26 23:08:00,
2013-02-26 16:13:00,43.9,0.5,29.95,West,276,21.9,21.9,16,0.00,FEW,,0.00,434.0,WeatherDisplay:10.37,2013-02-26 23:13:00,
2013-02-26 16:14:00,43.9,0.5,29.95,West,270,13.8,13.8,16,0.00,FEW,,0.00,432.0,WeatherDisplay:10.37,2013-02-26 23:14:00,
2013-02-26 16:19:00,43.2,1.2,29.95,NW,310,31.1,31.1,17,0.00,FEW,,0.00,385.0,WeatherDisplay:10.37,2013-02-26 23:19:00,
2013-02-26 16:20:00,42.7,0.8,29.95,NW,308,25.3,25.3,17,0.00,FEW,,0.00,357.0,WeatherDisplay:10.37,2013-02-26 23:20:00,
2013-02-26 16:25:00,42.0,1.5,29.95,WNW,299,18.4,18.4,18,0.00,FEW,,0.00,100.0,WeatherDisplay:10.37,2013-02-26 23:25:00,
2013-02-26 16:29:00,41.9,0.2,29.95,West,266,21.9,21.9,17,0.00,FEW,,0.00,373.0,WeatherDisplay:10.37,2013-02-26 23:29:00,
2013-02-26 16:32:00,42.3,0.5,29.95,WNW,287,25.3,25.3,17,0.00,FEW,,0.00,357.0,WeatherDisplay:10.37,2013-02-26 23:32:00,
2013-02-26 16:34:00,42.0,0.3,29.95,WNW,299,20.0,20.0,17,0.00,FEW,,0.00,311.0,WeatherDisplay:10.37,2013-02-26 23:34:00,
2013-02-26 16:37:00,41.8,0.1,29.95,NW,304,20.7,20.7,17,0.00,FEW,,0.00,330.0,WeatherDisplay:10.37,2013-02-26 23:37:00,
2013-02-26 16:39:00,41.7,0.0,29.95,WNW,292,20.7,20.7,17,0.00,FEW,,0.00,290.0,WeatherDisplay:10.37,2013-02-26 23:39:00,
2013-02-26 16:42:00,41.5,-0.2,29.95,West,266,19.6,19.6,17,0.00,FEW,,0.00,274.0,WeatherDisplay:10.37,2013-02-26 23:42:00,
2013-02-26 16:46:00,41.9,-1.1,29.96,West,281,16.1,16.1,16,0.00,FEW,,0.00,302.0,WeatherDisplay:10.37,2013-02-26 23:46:00,
2013-02-26 16:47:00,41.9,-2.5,29.96,WNW,288,16.1,16.1,15,0.00,FEW,,0.00,297.0,WeatherDisplay:10.37,2013-02-26 23:47:00,
2013-02-26 16:52:00,41.5,-2.8,29.96,SW,224,17.3,17.3,15,0.00,FEW,,0.00,258.0,WeatherDisplay:10.37,2013-02-26 23:52:00,
2013-02-26 16:57:00,41.3,-3.0,29.96,WSW,252,26.5,26.5,15,0.00,FEW,,0.00,251.0,WeatherDisplay:10.37,2013-02-26 23:57:00,
2013-02-26 17:02:00,41.0,-4.7,29.96,West,268,16.1,16.1,14,0.00,FEW,,0.00,74.0,WeatherDisplay:10.37,2013-02-27 00:02:00,
2013-02-26 17:03:00,40.9,-4.7,29.96,West,273,15.0,15.0,14,0.00,FEW,,0.00,54.0,WeatherDisplay:10.37,2013-02-27 00:03:00,
2013-02-26 17:08:00,40.5,-6.6,29.96,WNW,299,24.2,24.2,13,0.00,FEW,,0.00,174.0,WeatherDisplay:10.37,2013-02-27 00:08:00,
2013-02-26 17:09:00,40.5,-6.6,29.96,West,276,19.6,19.6,13,0.00,FEW,,0.00,169.0,WeatherDisplay:10.37,2013-02-27 00:09:00,
2013-02-26 17:13:00,40.4,-8.3,29.96,West,262,19.6,19.6,12,0.00,FEW,,0.00,162.0,WeatherDisplay:10.37,2013-02-27 00:13:00,
2013-02-26 17:14:00,40.4,-8.3,29.96,NW,308,19.6,19.6,12,0.00,FEW,,0.00,160.0,WeatherDisplay:10.37,2013-02-27 00:14:00,
2013-02-26 17:19:00,40.4,-6.7,29.97,West,266,21.9,21.9,13,0.00,FEW,,0.00,135.0,WeatherDisplay:10.37,2013-02-27 00:19:00,
2013-02-26 17:21:00,40.4,-5.1,29.96,WSW,257,19.6,19.6,14,0.00,FEW,,0.00,127.0,WeatherDisplay:10.37,2013-02-27 00:21:00,
2013-02-26 17:26:00,40.1,-2.6,29.97,West,268,21.9,21.9,16,0.00,FEW,,0.00,105.0,WeatherDisplay:10.37,2013-02-27 00:26:00,
2013-02-26 17:28:00,40.0,-2.7,29.97,WSW,258,18.4,18.4,16,0.00,FEW,,0.00,97.0,WeatherDisplay:10.37,2013-02-27 00:28:00,
2013-02-26 17:31:00,39.9,-1.5,29.97,WNW,284,19.6,19.6,17,0.00,FEW,,0.00,84.0,WeatherDisplay:10.37,2013-02-27 00:31:00,
2013-02-26 17:33:00,39.7,-1.6,29.97,West,268,22.0,22.0,17,0.00,FEW,,0.00,77.0,WeatherDisplay:10.37,2013-02-27 00:33:00,
2013-02-26 17:36:00,39.6,-1.7,29.97,WNW,285,20.7,20.7,17,0.00,FEW,,0.00,58.0,WeatherDisplay:10.37,2013-02-27 00:36:00,
2013-02-26 17:38:00,39.4,-1.9,29.97,West,277,26.5,26.5,17,0.00,FEW,,0.00,51.0,WeatherDisplay:10.37,2013-02-27 00:38:00,
2013-02-26 17:41:00,39.2,-0.8,29.97,West,270,20.7,20.7,18,0.00,FEW,,0.00,42.0,WeatherDisplay:10.37,2013-02-27 00:41:00,
2013-02-26 17:45:00,38.9,-1.1,29.97,NW,306,25.3,25.3,18,0.00,FEW,,0.00,30.0,WeatherDisplay:10.37,2013-02-27 00:45:00,
2013-02-26 17:47:00,38.9,-1.1,29.97,WSW,256,23.0,23.0,18,0.00,FEW,,0.00,23.0,WeatherDisplay:10.37,2013-02-27 00:47:00,
2013-02-26 17:50:00,38.7,-1.3,29.97,WNW,302,18.4,18.4,18,0.00,FEW,,0.00,18.0,WeatherDisplay:10.37,2013-02-27 00:50:00,
2013-02-26 17:52:00,38.6,-0.2,29.98,WNW,301,24.2,24.2,19,0.00,FEW,,0.00,14.0,WeatherDisplay:10.37,2013-02-27 00:52:00,
2013-02-26 17:56:00,38.4,-0.4,29.98,WSW,252,21.9,21.9,19,0.00,FEW,,0.00,9.0,WeatherDisplay:10.37,2013-02-27 00:56:00,
2013-02-26 17:59:00,38.2,-0.5,29.98,West,266,15.0,15.0,19,0.00,FEW,,0.00,7.0,WeatherDisplay:10.37,2013-02-27 00:59:00,
2013-02-26 18:01:00,38.1,0.5,29.98,West,276,15.0,15.0,20,0.00,FEW,,0.00,0.0,WeatherDisplay:10.37,2013-02-27 01:01:00,
2013-02-26 18:05:00,37.9,0.3,29.98,West,266,15.0,15.0,20,0.00,FEW,,0.00,0.0,WeatherDisplay:10.37,2013-02-27 01:05:00,
2013-02-26 18:07:00,37.8,0.2,29.99,WNW,288,19.6,19.6,20,0.00,FEW,,0.00,0.0,WeatherDisplay:10.37,2013-02-27 01:07:00,
2013-02-26 18:10:00,37.7,0.2,29.99,WNW,288,12.0,12.0,20,0.00,FEW,,0.00,0.0,WeatherDisplay:10.37,2013-02-27 01:10:00,
2013-02-26 18:13:00,37.5,1.0,29.99,WNW,290,20.7,20.7,21,0.00,FEW,,0.00,0.0,WeatherDisplay:10.37,2013-02-27 01:13:00,
2013-02-26 18:16:00,37.3,0.9,29.99,WSW,252,17.3,17.3,21,0.00,FEW,,0.00,0.0,WeatherDisplay:10.37,2013-02-27 01:16:00,
2013-02-26 18:18:00,37.3,1.9,29.99,WNW,291,23.0,23.0,22,0.00,FEW,,0.00,0.0,WeatherDisplay:10.37,2013-02-27 01:18:00,
2013-02-26 18:21:00,37.1,1.7,29.99,WNW,287,21.9,21.9,22,0.00,FEW,,0.00,0.0,WeatherDisplay:10.37,2013-02-27 01:21:00,
2013-02-26 18:24:00,37.0,1.6,30.00,West,262,23.0,23.0,22,0.00,FEW,,0.00,0.0,WeatherDisplay:10.37,2013-02-27 01:24:00,
2013-02-26 18:29:00,36.8,1.4,30.00,WNW,290,18.4,18.4,22,0.00,FEW,,0.00,0.0,WeatherDisplay:10.37,2013-02-27 01:29:00,
2013-02-26 18:30:00,36.7,1.4,30.00,WNW,284,18.4,18.4,22,0.00,FEW,,0.00,0.0,WeatherDisplay:10.37,2013-02-27 01:30:00,
2013-02-26 18:33:00,36.6,1.3,30.00,NW,314,13.8,13.8,22,0.00,FEW,,0.00,0.0,WeatherDisplay:10.37,2013-02-27 01:33:00,
2013-02-26 18:35:00,36.5,1.2,30.00,WSW,245,19.6,19.6,22,0.00,FEW,,0.00,0.0,WeatherDisplay:10.37,2013-02-27 01:35:00,
2013-02-26 18:39:00,36.4,1.1,30.00,WNW,284,21.9,21.9,22,0.00,FEW,,0.00,0.0,WeatherDisplay:10.37,2013-02-27 01:39:00,
2013-02-26 18:40:00,36.3,1.0,30.00,WNW,295,19.6,19.6,22,0.00,FEW,,0.00,0.0,WeatherDisplay:10.37,2013-02-27 01:40:00,
2013-02-26 18:44:00,36.2,0.9,30.01,NW,309,15.0,15.0,22,0.00,FEW,,0.00,0.0,WeatherDisplay:10.37,2013-02-27 01:44:00,
2013-02-26 18:46:00,36.1,0.8,30.01,West,265,20.7,20.7,22,0.00,FEW,,0.00,0.0,WeatherDisplay:10.37,2013-02-27 01:46:00,
2013-02-26 18:49:00,36.0,0.8,30.01,WNW,285,20.7,20.7,22,0.00,FEW,,0.00,0.0,WeatherDisplay:10.37,2013-02-27 01:49:00,
2013-02-26 18:52:00,35.9,1.6,30.01,WNW,285,16.1,16.1,23,0.00,FEW,,0.00,0.0,WeatherDisplay:10.37,2013-02-27 01:52:00,
2013-02-26 18:55:00,35.8,1.5,30.01,West,268,19.6,19.6,23,0.00,FEW,,0.00,0.0,WeatherDisplay:10.37,2013-02-27 01:55:00,
2013-02-26 18:57:00,35.7,1.5,30.01,WSW,257,15.0,15.0,23,0.00,FEW,,0.00,0.0,WeatherDisplay:10.37,2013-02-27 01:57:00,
2013-02-26 18:58:00,35.7,1.5,30.01,WSW,240,16.1,16.1,23,0.00,FEW,,0.00,0.0,WeatherDisplay:10.37,2013-02-27 01:58:00,
2013-02-26 19:00:00,35.6,1.4,30.01,West,272,12.7,12.7,23,0.00,FEW,,0.00,0.0,WeatherDisplay:10.37,2013-02-27 02:00:00,
2013-02-26 19:02:00,35.5,2.2,30.01,West,277,19.6,19.6,24,0.00,FEW,,0.00,0.0,WeatherDisplay:10.37,2013-02-27 02:02:00,
2013-02-26 19:04:00,35.5,3.1,30.01,West,275,10.4,10.4,25,0.00,FEW,,0.00,0.0,WeatherDisplay:10.37,2013-02-27 02:04:00,
2013-02-26 19:08:00,35.3,2.9,30.01,WNW,284,18.4,18.4,25,0.00,FEW,,0.00,0.0,WeatherDisplay:10.37,2013-02-27 02:08:00,
2013-02-26 19:10:00,35.3,2.9,30.01,WNW,289,18.4,18.4,25,0.00,FEW,,0.00,0.0,WeatherDisplay:10.37,2013-02-27 02:10:00,
2013-02-26 19:16:00,35.3,2.9,30.01,West,267,15.0,15.0,25,0.00,CLR,,0.00,0.0,WeatherDisplay:10.37,2013-02-27 02:16:00,
2013-02-26 19:17:00,35.2,2.8,30.01,WNW,283,11.5,11.5,25,0.00,CLR,,0.00,0.0,WeatherDisplay:10.37,2013-02-27 02:17:00,
2013-02-26 19:19:00,35.2,2.8,30.01,West,275,19.6,19.6,25,0.00,CLR,,0.00,0.0,WeatherDisplay:10.37,2013-02-27 02:19:00,
2013-02-26 19:22:00,35.0,2.7,30.01,West,277,20.7,20.7,25,0.00,CLR,,0.00,0.0,WeatherDisplay:10.37,2013-02-27 02:22:00,
2013-02-26 19:24:00,35.0,2.7,30.01,West,276,17.3,17.3,25,0.00,CLR,,0.00,0.0,WeatherDisplay:10.37,2013-02-27 02:24:00,
2013-02-26 19:25:00,34.9,3.4,30.02,WSW,254,17.3,17.3,26,0.00,CLR,,0.00,0.0,WeatherDisplay:10.37,2013-02-27 02:25:00,
2013-02-26 19:26:00,34.9,3.4,30.01,WSW,256,19.6,19.6,26,0.00,CLR,,0.00,0.0,WeatherDisplay:10.37,2013-02-27 02:26:00,
2013-02-26 19:30:00,34.8,3.3,30.02,West,265,15.0,15.0,26,0.00,CLR,,0.00,0.0,WeatherDisplay:10.37,2013-02-27 02:30:00,
2013-02-26 19:31:00,34.7,3.2,30.02,West,260,16.1,16.1,26,0.00,CLR,,0.00,0.0,WeatherDisplay:10.37,2013-02-27 02:31:00,
2013-02-26 19:36:00,34.6,3.2,30.02,West,269,19.6,19.6,26,0.00,CLR,,0.00,0.0,WeatherDisplay:10.37,2013-02-27 02:36:00,
2013-02-26 19:41:00,34.5,3.1,30.02,West,264,23.0,23.0,26,0.00,CLR,,0.00,0.0,WeatherDisplay:10.37,2013-02-27 02:41:00,
2013-02-26 19:42:00,34.5,3.1,30.02,WSW,252,18.4,18.4,26,0.00,CLR,,0.00,0.0,WeatherDisplay:10.37,2013-02-27 02:42:00,
2013-02-26 19:47:00,34.4,3.0,30.02,WSW,252,17.3,17.3,26,0.00,CLR,,0.00,0.0,WeatherDisplay:10.37,2013-02-27 02:47:00,
2013-02-26 19:53:00,34.4,3.8,30.02,WNW,300,16.1,16.1,27,0.00,CLR,,0.00,0.0,WeatherDisplay:10.37,2013-02-27 02:53:00,
2013-02-26 19:54:00,34.4,3.8,30.03,West,274,13.8,13.8,27,0.00,CLR,,0.00,0.0,WeatherDisplay:10.37,2013-02-27 02:54:00,
2013-02-26 19:58:00,34.4,3.8,30.03,West,272,12.7,12.7,27,0.00,CLR,,0.00,0.0,WeatherDisplay:10.37,2013-02-27 02:58:00,
2013-02-26 20:03:00,34.3,3.7,30.03,West,268,15.0,15.0,27,0.00,CLR,,0.00,0.0,WeatherDisplay:10.37,2013-02-27 03:03:00,
2013-02-26 20:08:00,34.2,3.6,30.04,WNW,288,17.3,17.3,27,0.00,CLR,,0.00,0.0,WeatherDisplay:10.37,2013-02-27 03:08:00,
2013-02-26 20:13:00,34.0,3.5,30.04,NNW,340,11.5,11.5,27,0.00,CLR,,0.00,0.0,WeatherDisplay:10.37,2013-02-27 03:13:00,
2013-02-26 20:19:00,33.7,3.2,30.04,West,277,10.4,10.4,27,0.00,CLR,,0.00,0.0,WeatherDisplay:10.37,2013-02-27 03:19:00,
2013-02-26 20:24:00,33.4,3.7,30.04,WNW,298,11.5,11.5,28,0.00,CLR,,0.00,0.0,WeatherDisplay:10.37,2013-02-27 03:24:00,
2013-02-26 20:29:00,33.2,3.6,30.04,WSW,246,12.7,12.7,28,0.00,CLR,,0.00,0.0,WeatherDisplay:10.37,2013-02-27 03:29:00,
2013-02-26 20:31:00,33.2,3.6,30.04,West,266,15.0,15.0,28,0.00,CLR,,0.00,0.0,WeatherDisplay:10.37,2013-02-27 03:31:00,
2013-02-26 20:34:00,33.1,3.5,30.04,West,266,6.9,6.9,28,0.00,CLR,,0.00,0.0,WeatherDisplay:10.37,2013-02-27 03:34:00,
2013-02-26 20:40:00,33.0,3.4,30.05,West,264,9.2,9.2,28,0.00,CLR,,0.00,0.0,WeatherDisplay:10.37,2013-02-27 03:40:00,
2013-02-26 20:41:00,33.0,3.4,30.05,WSW,255,9.2,9.2,28,0.00,CLR,,0.00,0.0,WeatherDisplay:10.37,2013-02-27 03:41:00,
2013-02-26 20:45:00,32.8,3.2,30.05,WNW,292,11.5,11.5,28,0.00,CLR,,0.00,0.0,WeatherDisplay:10.37,2013-02-27 03:45:00,
2013-02-26 20:46:00,32.8,3.2,30.05,West,281,9.2,9.2,28,0.00,CLR,,0.00,0.0,WeatherDisplay:10.37,2013-02-27 03:46:00,
2013-02-26 20:48:00,32.8,3.2,30.05,West,266,13.0,13.0,28,0.00,CLR,,0.00,0.0,WeatherDisplay:10.37,2013-02-27 03:48:00,
2013-02-26 20:50:00,32.7,3.1,30.05,NW,307,12.7,12.7,28,0.00,CLR,,0.00,0.0,WeatherDisplay:10.37,2013-02-27 03:50:00,
2013-02-26 20:55:00,32.5,2.9,30.05,West,279,10.4,10.4,28,0.00,CLR,,0.00,0.0,WeatherDisplay:10.37,2013-02-27 03:55:00,
2013-02-26 20:56:00,32.5,2.9,30.05,WNW,301,5.8,5.8,28,0.00,CLR,,0.00,0.0,WeatherDisplay:10.37,2013-02-27 03:56:00,
2013-02-26 21:01:00,32.4,2.9,30.06,West,272,9.2,9.2,28,0.00,CLR,,0.00,0.0,WeatherDisplay:10.37,2013-02-27 04:01:00,
2013-02-26 21:02:00,32.4,2.9,30.06,West,263,8.1,8.1,28,0.00,CLR,,0.00,0.0,WeatherDisplay:10.37,2013-02-27 04:02:00,
2013-02-26 21:07:00,32.3,2.8,30.06,WNW,294,11.5,11.5,28,0.00,CLR,,0.00,0.0,WeatherDisplay:10.37,2013-02-27 04:07:00,
2013-02-26 21:12:00,32.2,2.7,30.07,WNW,297,9.2,9.2,28,0.00,CLR,,0.00,0.0,WeatherDisplay:10.37,2013-02-27 04:12:00,
2013-02-26 21:14:00,32.2,2.7,30.07,WNW,283,6.9,6.9,28,0.00,CLR,,0.00,0.0,WeatherDisplay:10.37,2013-02-27 04:14:00,
2013-02-26 21:19:00,32.1,3.4,30.07,WNW,295,4.6,4.6,29,0.00,CLR,,0.00,0.0,WeatherDisplay:10.37,2013-02-27 04:19:00,
2013-02-26 21:20:00,32.0,3.3,30.07,WNW,299,3.5,3.5,29,0.00,CLR,,0.00,0.0,WeatherDisplay:10.37,2013-02-27 04:20:00,
2013-02-26 21:21:00,32.0,3.3,30.07,WNW,286,5.8,5.8,29,0.00,CLR,,0.00,0.0,WeatherDisplay:10.37,2013-02-27 04:21:00,
2013-02-26 21:24:00,31.9,3.2,30.08,North,0,5.8,5.8,29,0.00,CLR,,0.00,0.0,WeatherDisplay:10.37,2013-02-27 04:24:00,
2013-02-26 21:29:00,31.7,3.0,30.08,NNE,12,3.5,3.5,29,0.00,CLR,,0.00,0.0,WeatherDisplay:10.37,2013-02-27 04:29:00,
2013-02-26 21:30:00,31.6,2.9,30.08,NNE,16,3.5,3.5,29,0.00,CLR,,0.00,0.0,WeatherDisplay:10.37,2013-02-27 04:30:00,
2013-02-26 21:35:00,31.1,3.2,30.08,NNE,19,3.5,3.5,30,0.00,CLR,,0.00,0.0,WeatherDisplay:10.37,2013-02-27 04:35:00,
2013-02-26 21:36:00,31.1,3.2,30.08,NE,35,3.5,3.5,30,0.00,CLR,,0.00,0.0,WeatherDisplay:10.37,2013-02-27 04:36:00,
2013-02-26 21:39:00,30.8,3.0,30.08,ENE,64,2.3,2.3,30,0.00,CLR,,0.00,0.0,WeatherDisplay:10.37,2013-02-27 04:39:00,
2013-02-26 21:41:00,30.6,2.8,30.08,ENE,64,3.5,3.5,30,0.00,CLR,,0.00,0.0,WeatherDisplay:10.37,2013-02-27 04:41:00,
2013-02-26 21:46:00,30.4,3.3,30.08,ENE,64,1.1,0.0,31,0.00,CLR,,0.00,0.0,WeatherDisplay:10.37,2013-02-27 04:46:00,
2013-02-26 21:50:00,30.2,3.1,30.09,ENE,64,1.1,1.1,31,0.00,CLR,,0.00,0.0,WeatherDisplay:10.37,2013-02-27 04:50:00,
2013-02-26 21:51:00,30.1,3.1,30.08,ENE,64,1.1,1.1,31,0.00,CLR,,0.00,0.0,WeatherDisplay:10.37,2013-02-27 04:51:00,
2013-02-26 21:55:00,29.8,2.8,30.08,ENE,64,2.3,2.3,31,0.00,CLR,,0.00,0.0,WeatherDisplay:10.37,2013-02-27 04:55:00,
2013-02-26 21:56:00,29.7,2.7,30.09,ENE,64,2.3,2.3,31,0.00,CLR,,0.00,0.0,WeatherDisplay:10.37,2013-02-27 04:56:00,
2013-02-26 21:57:00,29.7,2.7,30.09,ENE,64,2.3,2.3,31,0.00,CLR,,0.00,0.0,WeatherDisplay:10.37,2013-02-27 04:57:00,
2013-02-26 22:00:00,29.5,3.2,30.09,ENE,64,0.0,0.0,32,0.00,CLR,,0.00,0.0,WeatherDisplay:10.37,2013-02-27 05:00:00,
2013-02-26 22:03:00,29.3,3.0,30.09,ENE,64,2.3,2.3,32,0.00,CLR,,0.00,0.0,WeatherDisplay:10.37,2013-02-27 05:03:00,
2013-02-26 22:05:00,29.3,3.0,30.09,NNE,31,4.6,4.6,32,0.00,CLR,,0.00,0.0,WeatherDisplay:10.37,2013-02-27 05:05:00,
2013-02-26 22:08:00,29.9,3.6,30.09,West,273,3.5,3.5,32,0.00,CLR,,0.00,0.0,WeatherDisplay:10.37,2013-02-27 05:08:00,
2013-02-26 22:11:00,30.2,3.8,30.09,WNW,287,3.5,3.5,32,0.00,CLR,,0.00,0.0,WeatherDisplay:10.37,2013-02-27 05:11:00,
2013-02-26 22:12:00,30.2,3.8,30.09,WNW,287,2.3,2.3,32,0.00,CLR,,0.00,0.0,WeatherDisplay:10.37,2013-02-27 05:12:00,
2013-02-26 22:16:00,30.0,3.7,30.09,WNW,287,2.3,2.3,32,0.00,CLR,,0.00,0.0,WeatherDisplay:10.37,2013-02-27 05:16:00,
2013-02-26 22:17:00,30.0,3.7,30.09,WNW,287,2.3,2.3,32,0.00,CLR,,0.00,0.0,WeatherDisplay:10.37,2013-02-27 05:17:00,
2013-02-26 22:22:00,30.2,3.8,30.09,NNW,330,4.6,4.6,32,0.00,CLR,,0.00,0.0,WeatherDisplay:10.37,2013-02-27 05:22:00,
2013-02-26 22:24:00,30.2,3.8,30.09,NW,312,4.6,4.6,32,0.00,CLR,,0.00,0.0,WeatherDisplay:10.37,2013-02-27 05:24:00,
2013-02-26 22:27:00,30.1,3.7,30.09,NW,317,9.2,9.2,32,0.00,CLR,,0.00,0.0,WeatherDisplay:10.37,2013-02-27 05:27:00,
2013-02-26 22:30:00,30.2,4.5,30.09,NW,326,5.8,5.8,33,0.00,CLR,,0.00,0.0,WeatherDisplay:10.37,2013-02-27 05:30:00,
2013-02-26 22:32:00,30.2,4.5,30.09,NW,315,3.5,3.5,33,0.00,CLR,,0.00,0.0,WeatherDisplay:10.37,2013-02-27 05:32:00,
2013-02-26 22:36:00,30.2,4.5,30.09,WNW,291,4.6,4.6,33,0.00,CLR,,0.00,0.0,WeatherDisplay:10.37,2013-02-27 05:36:00,
2013-02-26 22:38:00,30.2,4.5,30.09,WNW,285,6.0,6.0,33,0.00,CLR,,0.00,0.0,WeatherDisplay:10.37,2013-02-27 05:38:00,
2013-02-26 22:39:00,30.2,4.5,30.09,NW,320,9.2,9.2,33,0.00,CLR,,0.00,0.0,WeatherDisplay:10.37,2013-02-27 05:39:00,
2013-02-26 22:41:00,30.3,5.2,30.09,West,272,4.6,4.6,34,0.00,CLR,,0.00,0.0,WeatherDisplay:10.37,2013-02-27 05:41:00,
2013-02-26 22:44:00,30.3,5.2,30.09,NW,319,9.2,9.2,34,0.00,CLR,,0.00,0.0,WeatherDisplay:10.37,2013-02-27 05:44:00,
2013-02-26 22:45:00,30.3,5.2,30.09,NW,314,9.2,9.2,34,0.00,CLR,,0.00,0.0,WeatherDisplay:10.37,2013-02-27 05:45:00,
2013-02-26 22:49:00,30.6,5.5,30.09,WNW,299,8.1,8.1,34,0.00,CLR,,0.00,0.0,WeatherDisplay:10.37,2013-02-27 05:49:00,
2013-02-26 22:50:00,30.6,5.5,30.09,WNW,294,6.9,6.9,34,0.00,CLR,,0.00,0.0,WeatherDisplay:10.37,2013-02-27 05:50:00,
2013-02-26 22:52:00,30.7,5.6,30.09,NW,324,3.5,3.5,34,0.00,CLR,,0.00,0.0,WeatherDisplay:10.37,2013-02-27 05:52:00,
2013-02-26 22:55:00,30.6,5.5,30.09,NW,314,3.5,3.5,34,0.00,CLR,,0.00,0.0,WeatherDisplay:10.37,2013-02-27 05:55:00,
2013-02-26 22:57:00,30.4,5.3,30.09,NW,318,5.8,5.8,34,0.00,CLR,,0.00,0.0,WeatherDisplay:10.37,2013-02-27 05:57:00,
2013-02-26 23:00:00,30.2,5.8,30.10,NNW,341,5.8,5.8,35,0.00,CLR,,0.00,0.0,WeatherDisplay:10.37,2013-02-27 06:00:00,
2013-02-26 23:01:00,30.1,5.7,30.10,NNE,21,5.0,5.0,35,0.00,CLR,,0.00,0.0,WeatherDisplay:10.37,2013-02-27 06:01:00,
2013-02-26 23:03:00,30.1,5.7,30.10,NNW,343,5.8,5.8,35,0.00,CLR,,0.00,0.0,WeatherDisplay:10.37,2013-02-27 06:03:00,
2013-02-26 23:04:00,30.1,5.7,30.10,North,9,4.6,4.6,35,0.00,CLR,,0.00,0.0,WeatherDisplay:10.37,2013-02-27 06:04:00,
2013-02-26 23:05:00,30.0,6.2,30.10,North,8,4.6,4.6,36,0.00,CLR,,0.00,0.0,WeatherDisplay:10.37,2013-02-27 06:05:00,
2013-02-26 23:10:00,29.8,6.1,30.10,North,7,6.9,6.9,36,0.00,CLR,,0.00,0.0,WeatherDisplay:10.37,2013-02-27 06:10:00,
2013-02-26 23:11:00,29.8,6.1,30.10,NNE,12,4.6,4.6,36,0.00,CLR,,0.00,0.0,WeatherDisplay:10.37,2013-02-27 06:11:00,
2013-02-26 23:12:00,29.8,6.1,30.10,NNW,331,5.0,5.0,36,0.00,CLR,,0.00,0.0,WeatherDisplay:10.37,2013-02-27 06:12:00,
2013-02-26 23:14:00,29.7,6.6,30.10,WNW,303,6.9,6.9,37,0.00,CLR,,0.00,0.0,WeatherDisplay:10.37,2013-02-27 06:14:00,
2013-02-26 23:17:00,29.7,6.6,30.10,NW,310,8.1,8.1,37,0.00,CLR,,0.00,0.0,WeatherDisplay:10.37,2013-02-27 06:17:00,
2013-02-26 23:18:00,29.7,6.6,30.10,NNW,336,5.8,5.8,37,0.00,CLR,,0.00,0.0,WeatherDisplay:10.37,2013-02-27 06:18:00,
2013-02-26 23:19:00,29.7,6.6,30.10,NNW,328,6.9,6.9,37,0.00,CLR,,0.00,0.0,WeatherDisplay:10.37,2013-02-27 06:19:00,
2013-02-26 23:21:00,29.6,6.5,30.10,NNW,337,6.9,6.9,37,0.00,CLR,,0.00,0.0,WeatherDisplay:10.37,2013-02-27 06:21:00,
2013-02-26 23:24:00,29.5,6.4,30.10,NNW,339,8.1,8.1,37,0.00,CLR,,0.00,0.0,WeatherDisplay:10.37,2013-02-27 06:24:00,
2013-02-26 23:25:00,29.4,6.3,30.10,North,355,5.8,5.8,37,0.00,CLR,,0.00,0.0,WeatherDisplay:10.37,2013-02-27 06:25:00,
2013-02-26 23:29:00,29.3,6.8,30.10,NW,308,10.4,10.4,38,0.00,CLR,,0.00,0.0,WeatherDisplay:10.37,2013-02-27 06:29:00,
2013-02-26 23:30:00,29.3,6.8,30.10,NNW,340,10.4,10.4,38,0.00,CLR,,0.00,0.0,WeatherDisplay:10.37,2013-02-27 06:30:00,
2013-02-26 23:33:00,29.3,6.8,30.10,WNW,298,6.9,6.9,38,0.00,CLR,,0.00,0.0,WeatherDisplay:10.37,2013-02-27 06:33:00,
2013-02-26 23:34:00,29.3,6.8,30.10,NNW,330,9.2,9.2,38,0.00,CLR,,0.00,0.0,WeatherDisplay:10.37,2013-02-27 06:34:00,
2013-02-26 23:35:00,29.3,6.8,30.10,NW,320,6.9,6.9,38,0.00,CLR,,0.00,0.0,WeatherDisplay:10.37,2013-02-27 06:35:00,
2013-02-26 23:37:00,29.2,6.7,30.10,WNW,293,9.2,9.2,38,0.00,CLR,,0.00,0.0,WeatherDisplay:10.37,2013-02-27 06:37:00,
2013-02-26 23:38:00,29.3,6.8,30.10,NW,322,8.1,8.1,38,0.00,CLR,,0.00,0.0,WeatherDisplay:10.37,2013-02-27 06:38:00,
2013-02-26 23:41:00,29.2,7.3,30.10,NW,320,9.2,9.2,39,0.00,CLR,,0.00,0.0,WeatherDisplay:10.37,2013-02-27 06:41:00,
2013-02-26 23:42:00,29.2,7.3,30.10,NW,315,12.7,12.7,39,0.00,CLR,,0.00,0.0,WeatherDisplay:10.37,2013-02-27 06:42:00,
2013-02-26 23:43:00,29.2,7.3,30.10,NW,322,8.1,8.1,39,0.00,CLR,,0.00,0.0,WeatherDisplay:10.37,2013-02-27 06:43:00,
2013-02-26 23:48:00,29.5,7.5,30.11,West,281,11.5,11.5,39,0.00,CLR,,0.00,0.0,WeatherDisplay:10.37,2013-02-27 06:48:00,
2013-02-26 23:49:00,29.5,7.5,30.11,WNW,299,11.5,11.5,39,0.00,CLR,,0.00,0.0,WeatherDisplay:10.37,2013-02-27 06:49:00,
2013-02-26 23:50:00,29.5,7.5,30.10,NNW,342,11.5,11.5,39,0.00,CLR,,0.00,0.0,WeatherDisplay:10.37,2013-02-27 06:50:00,
2013-02-26 23:53:00,29.4,7.5,30.11,NW,306,6.9,6.9,39,0.00,CLR,,0.00,0.0,WeatherDisplay:10.37,2013-02-27 06:53:00,
2013-02-26 23:55:00,29.4,7.5,30.11,NW,309,11.5,11.5,39,0.00,CLR,,0.00,0.0,WeatherDisplay:10.37,2013-02-27 06:55:00,
2013-02-26 23:56:00,29.4,7.5,30.11,NW,308,12.7,12.7,39,0.00,CLR,,0.00,0.0,WeatherDisplay:10.37,2013-02-27 06:56:00,
2013-02-26 23:57:00,29.4,7.5,30.11,NW,304,11.5,11.5,39,0.00,CLR,,0.00,0.0,WeatherDisplay:10.37,2013-02-27 06:57:00,
2013-02-26 23:58:00,29.4,7.5,30.11,NNW,345,11.5,11.5,39,0.00,CLR,,0.00,0.0,WeatherDisplay:10.37,2013-02-27 06:58:00,